Dirección General De Aeronáutica Civil

Dirección Meteorológica de Chile - Servicios Climáticos

Informe General de Control de Calidad de la Estación

Listado de niveles de control de calidad para algunos parámetros
Estación Chaitén, Ad. (420004)
Fecha de Revisión de los datos :

Elementos

Registros Niveles de Control Total
Nivel 0 Nivel 1 Nivel 2 Nivel 3 Errores Porcentaje
01 Temperatura del Aire Seco 156.245 0 . 141 0.09 % 0 . 0 . 141 0.09 %
02 Temperatura de Rocío 52.259 0 . 0 . 0 . 0 . 0 0.00 %
03 Humedad Relativa del Aire 148.481 0 . 0 . 0 . 0 . 0 0.00 %
04 Temperatura Máxima PM 11.752 0 . 0 . 462 3.93 % 0 . 462 3.93 %
05 Temperatura Mínima AM 11.758 0 . 0 . 138 1.17 % 0 . 138 1.17 %
06 Viento a 10 m. de Altura 57.288 0 . 0 . 0 . 0 . 0 0.00 %
07 Agua Caida, Acumulada 6 Horas 47.321 0 . 0 . 0 . 0 . 0 0.00 %
08 Presión Atm. a Nivel de Estación (QFE) 0 0 . 0 . 0 . 0 . 0 .
09 Presión Atm. a Nivel Medio del Mar (QFF) 0 0 . 0 . 0 . 0 . 0 .
10 Presión Atm. Estándar OACI (QNH) 152.632 0 . 0 . 0 . 0 . 0 0.00 %

Totales

637.736 . 0.0000 % . 0.0221 % . 0.0941 % . 0.0000 % 741 0.1162 %

Detalle de Errores Encontrados

Nivel Fecha del Dato Descripción Información Error Fecha Ingreso
1 1976-07-29 12:00:00 Ts debe ser mayor o igual a Td Ts=1.2 - Td=1.7 2011-10-03 11:10:00
1 1976-08-13 12:00:00 Ts debe ser mayor o igual a Td Ts=0.0 - Td=2.4 2011-10-03 11:11:00
1 1976-09-03 12:00:00 Ts debe ser mayor o igual a Td Ts=2.0 - Td=13.1 2011-10-03 11:11:00
1 1976-09-05 00:00:00 Ts debe ser mayor o igual a Td Ts=6.4 - Td=21.0 2011-10-03 11:11:00
1 1976-09-09 12:00:00 Ts debe ser mayor o igual a Td Ts=5.6 - Td=7.6 2011-10-03 11:11:00
1 1976-10-02 18:00:00 Ts debe ser mayor o igual a Td Ts=3.0 - Td=17.6 2011-10-03 11:11:00
1 1976-11-02 15:00:00 Ts debe ser mayor o igual a Td Ts=11.4 - Td=12.4 2011-10-03 11:11:00
1 1976-11-04 00:00:00 Ts debe ser mayor o igual a Td Ts=0.6 - Td=10.9 2011-10-03 11:11:00
1 1976-11-11 00:00:00 Ts debe ser mayor o igual a Td Ts=1.3 - Td=19.7 2011-10-03 11:11:00
1 1976-11-11 00:00:00 HR (Humedad Relativa) es igual a 100% y Ts <> Td 1.3 - 19.7 2011-10-03 11:49:00
1 1976-11-24 09:00:00 Ts debe ser mayor o igual a Td Ts=7.2 - Td=8.0 2011-10-03 11:11:00
1 1976-11-26 00:00:00 Ts debe ser mayor o igual a Td Ts=11.2 - Td=11.6 2011-10-03 11:11:00
1 1976-11-30 12:00:00 Ts debe ser mayor o igual a Td Ts=11.0 - Td=21.4 2011-10-03 11:11:00
1 1976-12-12 09:00:00 Ts debe ser mayor o igual a Td Ts=8.0 - Td=13.5 2011-10-03 11:11:00
1 1976-12-12 09:00:00 HR (Humedad Relativa) es igual a 100% y Ts <> Td 8.0 - 13.5 2011-10-03 11:50:00
1 1976-12-15 09:00:00 Ts debe ser mayor o igual a Td Ts=7.0 - Td=7.8 2011-10-03 11:11:00
1 1976-12-18 15:00:00 Ts debe ser mayor o igual a Td Ts=14.0 - Td=15.6 2011-10-03 11:11:00
1 1976-12-18 15:00:00 HR (Humedad Relativa) es igual a 100% y Ts <> Td 14.0 - 15.6 2011-10-03 11:50:00
1 1976-12-24 21:00:00 Ts debe ser mayor o igual a Td Ts=10.6 - Td=17.8 2011-10-03 11:11:00
1 1976-12-29 09:00:00 Ts debe ser mayor o igual a Td Ts=4.6 - Td=20.0 2011-10-03 11:11:00
1 1976-12-29 09:00:00 HR (Humedad Relativa) es igual a 100% y Ts <> Td 4.6 - 20.0 2011-10-03 11:50:00
1 1977-01-06 15:00:00 Ts debe ser mayor o igual a Td Ts=17.0 - Td=28.9 2011-10-03 11:11:00
1 1977-01-13 21:00:00 Ts debe ser mayor o igual a Td Ts=17.2 - Td=18.1 2011-10-03 11:11:00
1 1977-01-14 00:00:00 Ts debe ser mayor o igual a Td Ts=15.4 - Td=16.3 2011-10-03 11:11:00
1 1977-02-28 09:00:00 Ts debe ser mayor o igual a Td Ts=4.8 - Td=6.0 2011-10-03 11:11:00
1 1977-02-28 09:00:00 HR (Humedad Relativa) es igual a 100% y Ts <> Td 4.8 - 6.0 2011-10-03 11:50:00
1 1977-03-04 18:00:00 Ts debe ser mayor o igual a Td Ts=5.2 - Td=19.0 2011-10-03 11:11:00
1 1977-03-08 00:00:00 Ts debe ser mayor o igual a Td Ts=12.0 - Td=13.0 2011-10-03 11:11:00
1 1977-03-11 18:00:00 Ts debe ser mayor o igual a Td Ts=14.0 - Td=15.0 2011-10-03 11:11:00
1 1977-03-11 18:00:00 HR (Humedad Relativa) es igual a 100% y Ts <> Td 14.0 - 15.0 2011-10-03 11:51:00
1 1977-03-17 12:00:00 Ts debe ser mayor o igual a Td Ts=13.2 - Td=13.9 2011-10-03 11:11:00
1 1977-03-29 12:00:00 Ts debe ser mayor o igual a Td Ts=0.1 - Td=2.2 2011-10-03 11:11:00
1 1977-03-29 12:00:00 HR (Humedad Relativa) es igual a 100% y Ts <> Td 0.1 - 2.2 2011-10-03 11:51:00
1 1977-04-03 00:00:00 Ts debe ser mayor o igual a Td Ts=11.2 - Td=12.6 2011-10-03 11:11:00
1 1977-04-26 18:00:00 Ts debe ser mayor o igual a Td Ts=9.8 - Td=22.6 2011-10-03 11:11:00
1 1977-05-14 00:00:00 Ts debe ser mayor o igual a Td Ts=6.0 - Td=6.4 2011-10-03 11:12:00
1 1977-05-16 12:00:00 Ts debe ser mayor o igual a Td Ts=1.6 - Td=12.2 2011-10-03 11:12:00
1 1977-06-14 00:00:00 Ts debe ser mayor o igual a Td Ts=7.0 - Td=7.4 2011-10-03 11:12:00
1 1977-06-14 00:00:00 HR (Humedad Relativa) es igual a 100% y Ts <> Td 7.0 - 7.4 2011-10-03 11:52:00
1 1977-06-17 18:00:00 Ts debe ser mayor o igual a Td Ts=2.7 - Td=5.0 2011-10-03 11:12:00
1 1977-06-20 15:00:00 Ts debe ser mayor o igual a Td Ts=2.6 - Td=9.2 2011-10-03 11:12:00
1 1977-07-04 18:00:00 Ts debe ser mayor o igual a Td Ts=5.0 - Td=5.8 2011-10-03 11:12:00
1 1977-07-08 18:00:00 Ts debe ser mayor o igual a Td Ts=7.6 - Td=10.5 2011-10-03 11:12:00
1 1977-07-16 18:00:00 Ts debe ser mayor o igual a Td Ts=6.6 - Td=9.6 2011-10-03 11:12:00
1 1977-07-27 15:00:00 Ts debe ser mayor o igual a Td Ts=4.1 - Td=4.3 2011-10-03 11:12:00
1 1977-08-08 00:00:00 Ts debe ser mayor o igual a Td Ts=8.1 - Td=9.0 2011-10-03 11:12:00
1 1977-09-08 12:00:00 Ts debe ser mayor o igual a Td Ts=8.0 - Td=8.8 2011-10-03 11:12:00
1 1977-09-08 12:00:00 HR (Humedad Relativa) es igual a 100% y Ts <> Td 8.0 - 8.8 2011-10-03 11:52:00
1 1977-09-13 12:00:00 Ts debe ser mayor o igual a Td Ts=5.6 - Td=8.0 2011-10-03 11:12:00
1 1977-09-13 12:00:00 HR (Humedad Relativa) es igual a 100% y Ts <> Td 5.6 - 8.0 2011-10-03 11:52:00
1 1977-09-16 12:00:00 Ts debe ser mayor o igual a Td Ts=5.4 - Td=6.4 2011-10-03 11:12:00
1 1977-09-16 12:00:00 HR (Humedad Relativa) es igual a 100% y Ts <> Td 5.4 - 6.4 2011-10-03 11:52:00
1 1977-10-18 21:00:00 Ts debe ser mayor o igual a Td Ts=1.3 - Td=17.3 2011-10-03 11:12:00
1 1977-11-05 12:00:00 Ts debe ser mayor o igual a Td Ts=12.4 - Td=13.1 2011-10-03 11:12:00
1 1977-11-10 12:00:00 Ts debe ser mayor o igual a Td Ts=9.0 - Td=10.1 2011-10-03 11:12:00
1 1977-11-10 15:00:00 Ts debe ser mayor o igual a Td Ts=9.0 - Td=9.7 2011-10-03 11:12:00
1 1977-11-10 15:00:00 HR (Humedad Relativa) es igual a 100% y Ts <> Td 9.0 - 9.7 2011-10-03 11:53:00
1 1977-12-07 12:00:00 Ts debe ser mayor o igual a Td Ts=9.8 - Td=15.7 2011-10-03 11:12:00
1 1978-02-01 00:00:00 Ts debe ser mayor o igual a Td Ts=13.4 - Td=20.0 2011-10-03 11:12:00
1 1978-02-06 15:00:00 Ts debe ser mayor o igual a Td Ts=15.8 - Td=16.7 2011-10-03 11:12:00
1 1978-02-11 00:00:00 Ts debe ser mayor o igual a Td Ts=11.0 - Td=16.2 2011-10-03 11:12:00
1 1978-03-08 12:00:00 Ts debe ser mayor o igual a Td Ts=0.9 - Td=15.7 2011-10-03 11:12:00
1 1978-03-08 12:00:00 HR (Humedad Relativa) es igual a 100% y Ts <> Td 0.9 - 15.7 2011-10-03 11:54:00
1 1978-03-22 12:00:00 Ts debe ser mayor o igual a Td Ts=7.2 - Td=7.6 2011-10-03 11:13:00
1 1978-03-25 12:00:00 Ts debe ser mayor o igual a Td Ts=6.0 - Td=6.8 2011-10-03 11:13:00
1 1978-04-06 12:00:00 Ts debe ser mayor o igual a Td Ts=5.0 - Td=5.4 2011-10-03 11:13:00
1 1978-04-14 12:00:00 Ts debe ser mayor o igual a Td Ts=0.1 - Td=1.8 2011-10-03 11:13:00
1 1978-04-14 12:00:00 HR (Humedad Relativa) es igual a 100% y Ts <> Td 0.1 - 1.8 2011-10-03 11:54:00
1 1978-06-26 21:00:00 Ts debe ser mayor o igual a Td Ts=7.4 - Td=8.5 2011-10-03 11:13:00
1 1978-08-20 12:00:00 Ts debe ser mayor o igual a Td Ts=-1.6 - Td=5.5 2011-10-03 11:13:00
1 1978-08-20 12:00:00 HR (Humedad Relativa) es igual a 100% y Ts <> Td -1.6 - 5.5 2011-10-03 11:56:00
1 1978-10-12 00:00:00 Ts debe ser mayor o igual a Td Ts=6.0 - Td=6.8 2011-10-03 11:13:00
1 1978-10-16 15:00:00 Ts debe ser mayor o igual a Td Ts=10.4 - Td=11.1 2011-10-03 11:13:00
1 1978-10-19 18:00:00 Ts debe ser mayor o igual a Td Ts=10.6 - Td=11.7 2011-10-03 11:13:00
1 1978-11-02 09:00:00 Ts debe ser mayor o igual a Td Ts=3.0 - Td=3.4 2011-10-03 11:13:00
1 1978-11-07 00:00:00 Ts debe ser mayor o igual a Td Ts=12.0 - Td=12.3 2011-10-03 11:13:00
1 1978-11-07 12:00:00 Ts debe ser mayor o igual a Td Ts=0.9 - Td=14.7 2011-10-03 11:13:00
1 1978-11-24 09:00:00 Ts debe ser mayor o igual a Td Ts=6.0 - Td=8.0 2011-10-03 11:13:00
1 1978-11-24 09:00:00 HR (Humedad Relativa) es igual a 100% y Ts <> Td 6.0 - 8.0 2011-10-03 11:57:00
1 1978-12-16 09:00:00 Ts debe ser mayor o igual a Td Ts=6.0 - Td=6.8 2011-10-03 11:13:00
1 1978-12-16 09:00:00 HR (Humedad Relativa) es igual a 100% y Ts <> Td 6.0 - 6.8 2011-10-03 11:57:00
1 1979-01-09 12:00:00 Ts debe ser mayor o igual a Td Ts=10.0 - Td=12.8 2011-10-03 11:14:00
1 1979-01-10 09:00:00 Ts debe ser mayor o igual a Td Ts=10.0 - Td=11.8 2011-10-03 11:14:00
1 1979-01-18 09:00:00 Ts debe ser mayor o igual a Td Ts=6.0 - Td=9.8 2011-10-03 11:14:00
1 1979-01-20 12:00:00 Ts debe ser mayor o igual a Td Ts=8.0 - Td=8.4 2011-10-03 11:14:00
1 1979-01-20 12:00:00 HR (Humedad Relativa) es igual a 100% y Ts <> Td 8.0 - 8.4 2011-10-03 11:58:00
1 1979-02-06 21:00:00 Ts debe ser mayor o igual a Td Ts=10.1 - Td=13.4 2011-10-03 11:14:00
1 1979-02-11 09:00:00 Ts debe ser mayor o igual a Td Ts=10.0 - Td=10.7 2011-10-03 11:14:00
1 1979-02-11 09:00:00 HR (Humedad Relativa) es igual a 100% y Ts <> Td 10.0 - 10.7 2011-10-03 11:58:00
1 1979-02-14 09:00:00 Ts debe ser mayor o igual a Td Ts=13.8 - Td=14.5 2011-10-03 11:14:00
1 1979-03-15 12:00:00 Ts debe ser mayor o igual a Td Ts=5.8 - Td=16.6 2011-10-03 11:14:00
1 1979-03-15 12:00:00 HR (Humedad Relativa) es igual a 100% y Ts <> Td 5.8 - 16.6 2011-10-03 11:58:00
1 1979-03-18 12:00:00 Ts debe ser mayor o igual a Td Ts=6.8 - Td=10.5 2011-10-03 11:14:00
1 1979-03-18 12:00:00 HR (Humedad Relativa) es igual a 100% y Ts <> Td 6.8 - 10.5 2011-10-03 11:58:00
1 1979-04-15 15:00:00 Ts debe ser mayor o igual a Td Ts=13.0 - Td=15.3 2011-10-03 11:14:00
1 1979-04-15 15:00:00 HR (Humedad Relativa) es igual a 100% y Ts <> Td 13.0 - 15.3 2011-10-03 11:59:00
1 1979-04-17 12:00:00 Ts debe ser mayor o igual a Td Ts=12.5 - Td=13.3 2011-10-03 11:14:00
1 1979-05-02 09:00:00 Ts debe ser mayor o igual a Td Ts=5.3 - Td=5.5 2011-10-03 11:14:00
1 1979-05-12 12:00:00 Ts debe ser mayor o igual a Td Ts=10.0 - Td=10.4 2011-10-03 11:14:00
1 1979-05-13 18:00:00 Ts debe ser mayor o igual a Td Ts=4.6 - Td=18.0 2011-10-03 11:14:00
1 1979-05-14 18:00:00 Ts debe ser mayor o igual a Td Ts=10.9 - Td=11.8 2011-10-03 11:14:00
1 1979-07-09 18:00:00 Ts debe ser mayor o igual a Td Ts=1.3 - Td=13.3 2011-10-03 11:14:00
1 1979-07-11 21:00:00 Ts debe ser mayor o igual a Td Ts=3.2 - Td=16.2 2011-10-03 11:14:00
1 1979-07-12 00:00:00 Ts debe ser mayor o igual a Td Ts=5.2 - Td=19.0 2011-10-03 11:14:00
1 1979-07-17 15:00:00 Ts debe ser mayor o igual a Td Ts=7.2 - Td=7.6 2011-10-03 11:14:00
1 1979-07-30 21:00:00 Ts debe ser mayor o igual a Td Ts=1.0 - Td=12.3 2011-10-03 11:14:00
1 1979-08-01 09:00:00 Ts debe ser mayor o igual a Td Ts=7.2 - Td=9.1 2011-10-03 11:14:00
1 1979-08-13 21:00:00 Ts debe ser mayor o igual a Td Ts=0.0 - Td=15.1 2011-10-03 11:14:00
1 1979-08-15 00:00:00 Ts debe ser mayor o igual a Td Ts=0.7 - Td=10.8 2011-10-03 11:14:00
1 1979-08-15 21:00:00 Ts debe ser mayor o igual a Td Ts=0.9 - Td=12.7 2011-10-03 11:14:00
1 1979-08-22 18:00:00 Ts debe ser mayor o igual a Td Ts=8.6 - Td=9.3 2011-10-03 11:14:00
1 1979-08-22 21:00:00 Ts debe ser mayor o igual a Td Ts=0.8 - Td=14.5 2011-10-03 11:14:00
1 1979-08-25 09:00:00 Ts debe ser mayor o igual a Td Ts=6.4 - Td=13.0 2011-10-03 11:14:00
1 1979-08-30 12:00:00 Ts debe ser mayor o igual a Td Ts=1.3 - Td=9.0 2011-10-03 11:14:00
1 1979-09-05 09:00:00 Ts debe ser mayor o igual a Td Ts=2.8 - Td=4.9 2011-10-03 11:14:00
1 1979-09-21 00:00:00 Ts debe ser mayor o igual a Td Ts=0.7 - Td=9.5 2011-10-03 11:14:00
1 1979-10-03 09:00:00 Ts debe ser mayor o igual a Td Ts=0.5 - Td=8.4 2011-10-03 11:15:00
1 1979-11-15 09:00:00 Ts debe ser mayor o igual a Td Ts=0.2 - Td=14.3 2011-10-03 11:15:00
1 1979-11-15 09:00:00 HR (Humedad Relativa) es igual a 100% y Ts <> Td 0.2 - 14.3 2011-10-03 12:01:00
1 1979-12-08 15:00:00 Ts debe ser mayor o igual a Td Ts=7.5 - Td=12.0 2011-10-03 11:15:00
1 1979-12-20 12:00:00 Ts debe ser mayor o igual a Td Ts=12.3 - Td=13.5 2011-10-03 11:15:00
1 1983-01-11 09:00:00 Ts debe ser mayor o igual a Td Ts=11.6 - Td=18.8 2011-10-03 11:20:00
1 1983-03-07 21:00:00 Ts debe ser mayor o igual a Td Ts=11.2 - Td=14.2 2011-10-03 11:20:00
1 1983-03-19 09:00:00 Ts debe ser mayor o igual a Td Ts=2.8 - Td=15.1 2011-10-03 11:20:00
1 1983-03-19 09:00:00 HR (Humedad Relativa) es igual a 100% y Ts <> Td 2.8 - 15.1 2011-10-03 12:14:00
1 1983-03-21 09:00:00 Ts debe ser mayor o igual a Td Ts=5.3 - Td=31.1 2011-10-03 11:20:00
1 1983-05-03 21:00:00 Ts debe ser mayor o igual a Td Ts=10.7 - Td=12.9 2011-10-03 11:20:00
1 1983-05-28 12:00:00 Ts debe ser mayor o igual a Td Ts=4.6 - Td=9.7 2011-10-03 11:21:00
1 1983-06-03 15:00:00 Ts debe ser mayor o igual a Td Ts=5.2 - Td=10.4 2011-10-03 11:21:00
1 1983-06-22 21:00:00 Ts debe ser mayor o igual a Td Ts=5.6 - Td=8.7 2011-10-03 11:21:00
1 1983-08-01 12:00:00 Ts debe ser mayor o igual a Td Ts=-2.7 - Td=-2.4 2011-10-03 11:21:00
1 1983-08-01 12:00:00 HR (Humedad Relativa) es igual a 100% y Ts <> Td -2.7 - -2.4 2011-10-03 12:16:00
1 1983-08-09 15:00:00 Ts debe ser mayor o igual a Td Ts=5.6 - Td=7.2 2011-10-03 11:21:00
1 1983-09-14 12:00:00 Ts debe ser mayor o igual a Td Ts=-0.8 - Td=17.2 2011-10-03 11:21:00
1 1983-09-14 12:00:00 HR (Humedad Relativa) es igual a 100% y Ts <> Td -0.8 - 17.2 2011-10-03 12:16:00
1 1983-10-07 12:00:00 Ts debe ser mayor o igual a Td Ts=9.1 - Td=9.7 2011-10-03 11:21:00
1 1983-12-05 12:00:00 Ts debe ser mayor o igual a Td Ts=13.8 - Td=21.7 2011-10-03 11:21:00
1 1983-12-08 09:00:00 Ts debe ser mayor o igual a Td Ts=14.0 - Td=19.7 2011-10-03 11:21:00
1 1983-12-15 00:00:00 Ts debe ser mayor o igual a Td Ts=14.3 - Td=14.8 2011-10-03 11:21:00
1 1983-12-31 18:00:00 Ts debe ser mayor o igual a Td Ts=17.2 - Td=17.5 2011-10-03 11:21:00
1 1996-04-20 00:00:00 Ts debe ser mayor o igual a Td Ts=7.4 - Td=12.7 2011-10-03 11:36:00
Errores del Nivel 141
Nivel Fecha del Dato Descripción Información Error Fecha Ingreso
2 1965-11-12 12:00:00 Temperatura 0.4 del 12-11-1965 12:00, Menor que la Mínima 3.8 12-11-1965 12:00 0.4 -- 3.8 2011-09-23 22:06:00
2 1966-01-29 12:00:00 Temperatura 9.6 del 29-01-1966 09:00, Menor que la Mínima 9.8 29-01-1966 12:00 9.6 -- 9.8 2011-09-23 22:06:00
2 1966-03-15 12:00:00 Temperatura 9.4 del 15-03-1966 12:00, Menor que la Mínima 9.6 15-03-1966 12:00 9.4 -- 9.6 2011-09-23 22:06:00
2 1966-04-30 12:00:00 Temperatura 11.8 del 30-04-1966 12:00, Menor que la Mínima 12.0 30-04-1966 12:00 11.8 -- 12.0 2011-09-23 22:06:00
2 1966-05-08 12:00:00 Temperatura 0.8 del 08-05-1966 12:00, Menor que la Mínima 9.0 08-05-1966 12:00 0.8 -- 9.0 2011-09-23 22:06:00
2 1966-05-28 12:00:00 Temperatura 0.4 del 28-05-1966 12:00, Menor que la Mínima 3.0 28-05-1966 12:00 0.4 -- 3.0 2011-09-23 22:06:00
2 1966-06-18 12:00:00 Temperatura 6.4 del 18-06-1966 12:00, Menor que la Mínima 9.4 18-06-1966 12:00 6.4 -- 9.4 2011-09-23 22:06:00
2 1976-06-02 12:00:00 Temperatura 5.0 del 02-06-1976 12:00, Menor que la Mínima 5.2 02-06-1976 12:00 5.0 -- 5.2 2011-09-23 22:06:00
2 1976-06-05 12:00:00 Temperatura 0.0 del 05-06-1976 11:00, Menor que la Mínima 0.4 05-06-1976 12:00 0.0 -- 0.4 2011-09-23 22:06:00
2 1976-06-10 12:00:00 Temperatura -2.0 del 10-06-1976 11:00, Menor que la Mínima 2.4 10-06-1976 12:00 -2.0 -- 2.4 2011-09-23 22:06:00
2 1976-06-25 12:00:00 Temperatura 0.8 del 25-06-1976 12:00, Menor que la Mínima 6.0 25-06-1976 12:00 0.8 -- 6.0 2011-09-23 22:06:00
2 1976-08-07 12:00:00 Temperatura 0.5 del 07-08-1976 11:00, Menor que la Mínima 5.0 07-08-1976 12:00 0.5 -- 5.0 2011-09-23 22:06:00
2 1976-09-06 12:00:00 Temperatura -1.6 del 06-09-1976 11:00, Menor que la Mínima 1.6 06-09-1976 12:00 -1.6 -- 1.6 2011-09-23 22:06:00
2 1976-09-08 12:00:00 Temperatura -2.0 del 08-09-1976 11:00, Menor que la Mínima 2.0 08-09-1976 12:00 -2.0 -- 2.0 2011-09-23 22:06:00
2 1976-09-21 12:00:00 Temperatura 8.0 del 21-09-1976 12:00, Menor que la Mínima 8.8 21-09-1976 12:00 8.0 -- 8.8 2011-09-23 22:06:00
2 1976-09-29 12:00:00 Temperatura 6.4 del 29-09-1976 11:00, Menor que la Mínima 6.6 29-09-1976 12:00 6.4 -- 6.6 2011-09-23 22:06:00
2 1976-10-11 12:00:00 Temperatura 8.4 del 11-10-1976 11:00, Menor que la Mínima 9.0 11-10-1976 12:00 8.4 -- 9.0 2011-09-23 22:06:00
2 1976-10-19 12:00:00 Temperatura -0.2 del 19-10-1976 11:00, Menor que la Mínima 0.2 19-10-1976 12:00 -0.2 -- 0.2 2011-09-23 22:06:00
2 1976-11-12 12:00:00 Temperatura 4.2 del 12-11-1976 11:00, Menor que la Mínima 5.8 12-11-1976 12:00 4.2 -- 5.8 2011-09-23 22:06:00
2 1976-11-16 12:00:00 Temperatura 8.0 del 16-11-1976 11:00, Menor que la Mínima 9.2 16-11-1976 12:00 8.0 -- 9.2 2011-09-23 22:06:00
2 1976-11-23 12:00:00 Temperatura 8.8 del 23-11-1976 11:00, Menor que la Mínima 9.0 23-11-1976 12:00 8.8 -- 9.0 2011-09-23 22:06:00
2 1976-12-15 12:00:00 Temperatura 7.0 del 15-12-1976 09:00, Menor que la Mínima 7.4 15-12-1976 12:00 7.0 -- 7.4 2011-09-23 22:06:00
2 1976-12-29 12:00:00 Temperatura 4.6 del 29-12-1976 09:00, Menor que la Mínima 14.0 29-12-1976 12:00 4.6 -- 14.0 2011-09-23 22:06:00
2 1977-01-05 12:00:00 Temperatura 13.2 del 05-01-1977 09:00, Menor que la Mínima 13.4 05-01-1977 12:00 13.2 -- 13.4 2011-09-23 22:06:00
2 1977-01-16 12:00:00 Temperatura 7.2 del 16-01-1977 10:00, Menor que la Mínima 7.4 16-01-1977 12:00 7.2 -- 7.4 2011-09-23 22:06:00
2 1977-03-04 12:00:00 Temperatura 12.6 del 04-03-1977 11:00, Menor que la Mínima 13.2 04-03-1977 12:00 12.6 -- 13.2 2011-09-23 22:06:00
2 1977-03-08 12:00:00 Temperatura 8.8 del 08-03-1977 12:00, Menor que la Mínima 9.2 08-03-1977 12:00 8.8 -- 9.2 2011-09-23 22:06:00
2 1977-03-11 12:00:00 Temperatura 5.4 del 11-03-1977 10:00, Menor que la Mínima 15.0 11-03-1977 12:00 5.4 -- 15.0 2011-09-23 22:06:00
2 1977-03-23 12:00:00 Temperatura 8.5 del 23-03-1977 11:00, Menor que la Mínima 8.8 23-03-1977 12:00 8.5 -- 8.8 2011-09-23 22:06:00
2 1977-04-04 12:00:00 Temperatura 0.5 del 04-04-1977 11:00, Menor que la Mínima 4.5 04-04-1977 12:00 0.5 -- 4.5 2011-09-23 22:06:00
2 1977-04-13 12:00:00 Temperatura 7.2 del 13-04-1977 11:00, Menor que la Mínima 8.6 13-04-1977 12:00 7.2 -- 8.6 2011-09-23 22:06:00
2 1977-05-05 12:00:00 Temperatura 0.0 del 05-05-1977 10:00, Menor que la Mínima 0.6 05-05-1977 12:00 0.0 -- 0.6 2011-09-23 22:06:00
2 1977-05-16 12:00:00 Temperatura 1.6 del 16-05-1977 12:00, Menor que la Mínima 6.6 16-05-1977 12:00 1.6 -- 6.6 2011-09-23 22:06:00
2 1977-05-22 12:00:00 Temperatura 1.2 del 22-05-1977 10:00, Menor que la Mínima 1.4 22-05-1977 12:00 1.2 -- 1.4 2011-09-23 22:06:00
2 1977-06-01 12:00:00 Temperatura 10.0 del 01-06-1977 11:00, Menor que la Mínima 10.4 01-06-1977 12:00 10.0 -- 10.4 2011-09-23 22:06:00
2 1977-06-09 12:00:00 Temperatura 8.8 del 09-06-1977 12:00, Menor que la Mínima 9.0 09-06-1977 12:00 8.8 -- 9.0 2011-09-23 22:06:00
2 1977-07-18 12:00:00 Temperatura 6.8 del 18-07-1977 11:00, Menor que la Mínima 7.8 18-07-1977 12:00 6.8 -- 7.8 2011-09-23 22:06:00
2 1977-08-18 12:00:00 Temperatura 10.6 del 18-08-1977 11:00, Menor que la Mínima 10.8 18-08-1977 12:00 10.6 -- 10.8 2011-09-23 22:06:00
2 1977-09-15 12:00:00 Temperatura 5.4 del 15-09-1977 11:00, Menor que la Mínima 5.6 15-09-1977 12:00 5.4 -- 5.6 2011-09-23 22:06:00
2 1977-09-18 12:00:00 Temperatura 6.0 del 18-09-1977 11:00, Menor que la Mínima 6.4 18-09-1977 12:00 6.0 -- 6.4 2011-09-23 22:06:00
2 1977-11-25 12:00:00 Temperatura 7.2 del 25-11-1977 11:00, Menor que la Mínima 7.6 25-11-1977 12:00 7.2 -- 7.6 2011-09-23 22:06:00
2 1977-11-27 12:00:00 Temperatura 7.6 del 27-11-1977 11:00, Menor que la Mínima 8.0 27-11-1977 12:00 7.6 -- 8.0 2011-09-23 22:06:00
2 1977-12-13 12:00:00 Temperatura 11.1 del 13-12-1977 11:00, Menor que la Mínima 11.2 13-12-1977 12:00 11.1 -- 11.2 2011-09-23 22:06:00
2 1977-12-27 12:00:00 Temperatura 9.0 del 27-12-1977 11:00, Menor que la Mínima 10.0 27-12-1977 12:00 9.0 -- 10.0 2011-09-23 22:06:00
2 1978-01-11 12:00:00 Temperatura 0.7 del 11-01-1978 12:00, Menor que la Mínima 6.2 11-01-1978 12:00 0.7 -- 6.2 2011-09-23 22:06:00
2 1978-02-11 12:00:00 Temperatura 10.8 del 11-02-1978 11:00, Menor que la Mínima 11.8 11-02-1978 12:00 10.8 -- 11.8 2011-09-23 22:06:00
2 1978-02-26 12:00:00 Temperatura 15.2 del 26-02-1978 11:00, Menor que la Mínima 15.4 26-02-1978 12:00 15.2 -- 15.4 2011-09-23 22:07:00
2 1978-03-06 12:00:00 Temperatura 6.0 del 06-03-1978 11:00, Menor que la Mínima 6.2 06-03-1978 12:00 6.0 -- 6.2 2011-09-23 22:07:00
2 1978-03-08 12:00:00 Temperatura 0.9 del 08-03-1978 12:00, Menor que la Mínima 9.0 08-03-1978 12:00 0.9 -- 9.0 2011-09-23 22:07:00
2 1978-03-25 12:00:00 Temperatura 6.0 del 25-03-1978 12:00, Menor que la Mínima 6.2 25-03-1978 12:00 6.0 -- 6.2 2011-09-23 22:07:00
2 1978-03-31 12:00:00 Temperatura 2.0 del 31-03-1978 11:00, Menor que la Mínima 5.2 31-03-1978 12:00 2.0 -- 5.2 2011-09-23 22:07:00
2 1978-04-14 12:00:00 Temperatura 0.1 del 14-04-1978 12:00, Menor que la Mínima 0.2 14-04-1978 12:00 0.1 -- 0.2 2011-09-23 22:07:00
2 1978-08-11 12:00:00 Temperatura -0.8 del 11-08-1978 11:00, Menor que la Mínima -0.6 11-08-1978 12:00 -0.8 -- -0.6 2011-09-23 22:07:00
2 1978-08-26 12:00:00 Temperatura 0.4 del 26-08-1978 11:00, Menor que la Mínima 8.6 26-08-1978 12:00 0.4 -- 8.6 2011-09-23 22:07:00
2 1978-09-19 12:00:00 Temperatura 6.8 del 19-09-1978 11:00, Menor que la Mínima 7.0 19-09-1978 12:00 6.8 -- 7.0 2011-09-23 22:07:00
2 1978-09-28 12:00:00 Temperatura -0.2 del 28-09-1978 11:00, Menor que la Mínima 0.2 28-09-1978 12:00 -0.2 -- 0.2 2011-09-23 22:07:00
2 1978-10-14 12:00:00 Temperatura 6.0 del 14-10-1978 09:00, Menor que la Mínima 6.4 14-10-1978 12:00 6.0 -- 6.4 2011-09-23 22:07:00
2 1978-10-16 12:00:00 Temperatura 6.6 del 16-10-1978 09:00, Menor que la Mínima 6.8 16-10-1978 12:00 6.6 -- 6.8 2011-09-23 22:07:00
2 1978-11-03 12:00:00 Temperatura 5.2 del 03-11-1978 12:00, Menor que la Mínima 5.4 03-11-1978 12:00 5.2 -- 5.4 2011-09-23 22:07:00
2 1978-11-07 12:00:00 Temperatura 0.9 del 07-11-1978 12:00, Menor que la Mínima 7.8 07-11-1978 12:00 0.9 -- 7.8 2011-09-23 22:07:00
2 1978-11-14 12:00:00 Temperatura 6.0 del 14-11-1978 09:00, Menor que la Mínima 11.0 14-11-1978 12:00 6.0 -- 11.0 2011-09-23 22:07:00
2 1978-12-03 12:00:00 Temperatura 4.8 del 03-12-1978 09:00, Menor que la Mínima 5.0 03-12-1978 12:00 4.8 -- 5.0 2011-09-23 22:07:00
2 1978-12-28 12:00:00 Temperatura 9.2 del 28-12-1978 09:00, Menor que la Mínima 9.4 28-12-1978 12:00 9.2 -- 9.4 2011-09-23 22:07:00
2 1979-01-02 12:00:00 Temperatura 4.6 del 02-01-1979 09:00, Menor que la Mínima 5.0 02-01-1979 12:00 4.6 -- 5.0 2011-09-23 22:07:00
2 1979-01-07 12:00:00 Temperatura 11.8 del 07-01-1979 10:00, Menor que la Mínima 12.0 07-01-1979 12:00 11.8 -- 12.0 2011-09-23 22:07:00
2 1979-01-12 12:00:00 Temperatura 11.2 del 12-01-1979 10:00, Menor que la Mínima 12.2 12-01-1979 12:00 11.2 -- 12.2 2011-09-23 22:07:00
2 1979-01-17 12:00:00 Temperatura 9.2 del 17-01-1979 12:00, Menor que la Mínima 10.5 17-01-1979 12:00 9.2 -- 10.5 2011-09-23 22:07:00
2 1979-01-24 12:00:00 Temperatura 10.8 del 24-01-1979 10:00, Menor que la Mínima 11.0 24-01-1979 12:00 10.8 -- 11.0 2011-09-23 22:07:00
2 1979-02-03 12:00:00 Temperatura 12.6 del 03-02-1979 09:00, Menor que la Mínima 12.8 03-02-1979 12:00 12.6 -- 12.8 2011-09-23 22:07:00
2 1979-02-07 12:00:00 Temperatura 4.6 del 07-02-1979 10:00, Menor que la Mínima 4.8 07-02-1979 12:00 4.6 -- 4.8 2011-09-23 22:07:00
2 1979-04-04 12:00:00 Temperatura 5.0 del 04-04-1979 10:00, Menor que la Mínima 5.2 04-04-1979 12:00 5.0 -- 5.2 2011-09-23 22:07:00
2 1979-04-11 12:00:00 Temperatura 2.8 del 11-04-1979 09:00, Menor que la Mínima 3.0 11-04-1979 12:00 2.8 -- 3.0 2011-09-23 22:07:00
2 1979-04-17 12:00:00 Temperatura 12.5 del 17-04-1979 12:00, Menor que la Mínima 12.6 17-04-1979 12:00 12.5 -- 12.6 2011-09-23 22:07:00
2 1979-04-28 12:00:00 Temperatura 11.8 del 28-04-1979 09:00, Menor que la Mínima 12.0 28-04-1979 12:00 11.8 -- 12.0 2011-09-23 22:07:00
2 1979-05-05 12:00:00 Temperatura 6.6 del 05-05-1979 09:00, Menor que la Mínima 6.8 05-05-1979 12:00 6.6 -- 6.8 2011-09-23 22:07:00
2 1979-05-15 12:00:00 Temperatura 10.4 del 15-05-1979 12:00, Menor que la Mínima 10.5 15-05-1979 12:00 10.4 -- 10.5 2011-09-23 22:07:00
2 1979-06-10 12:00:00 Temperatura -1.2 del 10-06-1979 10:00, Menor que la Mínima 1.8 10-06-1979 12:00 -1.2 -- 1.8 2011-09-23 22:07:00
2 1979-06-15 12:00:00 Temperatura -1.5 del 15-06-1979 11:00, Menor que la Mínima 2.0 15-06-1979 12:00 -1.5 -- 2.0 2011-09-23 22:07:00
2 1979-07-07 12:00:00 Temperatura -2.3 del 07-07-1979 10:00, Menor que la Mínima -2.0 07-07-1979 12:00 -2.3 -- -2.0 2011-09-23 22:07:00
2 1979-07-18 12:00:00 Temperatura -0.2 del 18-07-1979 09:00, Menor que la Mínima 0.4 18-07-1979 12:00 -0.2 -- 0.4 2011-09-23 22:07:00
2 1979-08-09 12:00:00 Temperatura 3.5 del 09-08-1979 09:00, Menor que la Mínima 3.6 09-08-1979 12:00 3.5 -- 3.6 2011-09-23 22:07:00
2 1979-08-11 12:00:00 Temperatura -1.2 del 11-08-1979 10:00, Menor que la Mínima 1.6 11-08-1979 12:00 -1.2 -- 1.6 2011-09-23 22:07:00
2 1979-08-30 12:00:00 Temperatura 1.3 del 30-08-1979 12:00, Menor que la Mínima 4.2 30-08-1979 12:00 1.3 -- 4.2 2011-09-23 22:07:00
2 1979-09-04 12:00:00 Temperatura -1.0 del 04-09-1979 11:00, Menor que la Mínima 1.2 04-09-1979 12:00 -1.0 -- 1.2 2011-09-23 22:07:00
2 1979-09-23 12:00:00 Temperatura 5.4 del 23-09-1979 12:00, Menor que la Mínima 6.6 23-09-1979 12:00 5.4 -- 6.6 2011-09-23 22:07:00
2 1979-09-29 12:00:00 Temperatura -0.2 del 29-09-1979 11:00, Menor que la Mínima 2.5 29-09-1979 12:00 -0.2 -- 2.5 2011-09-23 22:07:00
2 1979-09-30 12:00:00 Temperatura 0.9 del 30-09-1979 11:00, Menor que la Mínima 8.0 30-09-1979 12:00 0.9 -- 8.0 2011-09-23 22:07:00
2 1979-10-02 12:00:00 Temperatura 5.0 del 02-10-1979 10:00, Menor que la Mínima 6.1 02-10-1979 12:00 5.0 -- 6.1 2011-09-23 22:07:00
2 1979-10-03 12:00:00 Temperatura 0.5 del 03-10-1979 09:00, Menor que la Mínima 3.0 03-10-1979 12:00 0.5 -- 3.0 2011-09-23 22:07:00
2 1979-10-28 12:00:00 Temperatura 6.0 del 28-10-1979 09:00, Menor que la Mínima 6.2 28-10-1979 12:00 6.0 -- 6.2 2011-09-23 22:07:00
2 1979-11-16 12:00:00 Temperatura 6.8 del 16-11-1979 09:00, Menor que la Mínima 7.0 16-11-1979 12:00 6.8 -- 7.0 2011-09-23 22:07:00
2 1979-12-01 12:00:00 Temperatura 2.6 del 01-12-1979 09:00, Menor que la Mínima 2.8 01-12-1979 12:00 2.6 -- 2.8 2011-09-23 22:07:00
2 1979-12-29 12:00:00 Temperatura 10.4 del 29-12-1979 10:00, Menor que la Mínima 10.8 29-12-1979 12:00 10.4 -- 10.8 2011-09-23 22:07:00
2 1980-01-20 12:00:00 Temperatura 9.8 del 20-01-1980 10:00, Menor que la Mínima 10.2 20-01-1980 12:00 9.8 -- 10.2 2011-09-23 22:07:00
2 1980-02-21 12:00:00 Temperatura 10.6 del 21-02-1980 10:00, Menor que la Mínima 10.8 21-02-1980 12:00 10.6 -- 10.8 2011-09-23 22:07:00
2 1980-02-23 12:00:00 Temperatura 8.0 del 23-02-1980 10:00, Menor que la Mínima 8.4 23-02-1980 12:00 8.0 -- 8.4 2011-09-23 22:07:00
2 1980-02-27 12:00:00 Temperatura 12.6 del 27-02-1980 10:00, Menor que la Mínima 12.8 27-02-1980 12:00 12.6 -- 12.8 2011-09-23 22:07:00
2 1980-05-17 12:00:00 Temperatura 8.4 del 17-05-1980 11:00, Menor que la Mínima 8.8 17-05-1980 12:00 8.4 -- 8.8 2011-09-23 22:07:00
2 1981-03-13 12:00:00 Temperatura 8.6 del 13-03-1981 09:00, Menor que la Mínima 8.8 13-03-1981 12:00 8.6 -- 8.8 2011-09-23 22:08:00
2 1981-03-16 12:00:00 Temperatura 9.6 del 16-03-1981 10:00, Menor que la Mínima 10.0 16-03-1981 12:00 9.6 -- 10.0 2011-09-23 22:08:00
2 1981-03-25 12:00:00 Temperatura 13.2 del 25-03-1981 11:00, Menor que la Mínima 13.4 25-03-1981 12:00 13.2 -- 13.4 2011-09-23 22:08:00
2 1981-04-03 12:00:00 Temperatura 3.8 del 03-04-1981 10:00, Menor que la Mínima 4.8 03-04-1981 12:00 3.8 -- 4.8 2011-09-23 22:08:00
2 1981-05-05 12:00:00 Temperatura 7.6 del 05-05-1981 09:00, Menor que la Mínima 8.0 05-05-1981 12:00 7.6 -- 8.0 2011-09-23 22:08:00
2 1981-10-16 12:00:00 Temperatura 5.0 del 16-10-1981 09:00, Menor que la Mínima 7.0 16-10-1981 12:00 5.0 -- 7.0 2011-09-23 22:08:00
2 1981-12-05 12:00:00 Temperatura 9.0 del 05-12-1981 09:00, Menor que la Mínima 10.0 05-12-1981 12:00 9.0 -- 10.0 2011-09-23 22:08:00
2 1982-01-30 12:00:00 Temperatura 15.0 del 30-01-1982 09:00, Menor que la Mínima 16.0 30-01-1982 12:00 15.0 -- 16.0 2011-09-23 22:08:00
2 1982-02-03 12:00:00 Temperatura 9.2 del 03-02-1982 10:00, Menor que la Mínima 10.0 03-02-1982 12:00 9.2 -- 10.0 2011-09-23 22:08:00
2 1982-12-24 12:00:00 Temperatura 14.0 del 24-12-1982 10:00, Menor que la Mínima 14.2 24-12-1982 12:00 14.0 -- 14.2 2011-09-23 22:08:00
2 1983-01-18 12:00:00 Temperatura 13.5 del 18-01-1983 09:00, Menor que la Mínima 16.0 18-01-1983 12:00 13.5 -- 16.0 2011-09-23 22:08:00
2 1983-03-29 12:00:00 Temperatura 5.0 del 29-03-1983 11:00, Menor que la Mínima 5.2 29-03-1983 12:00 5.0 -- 5.2 2011-09-23 22:08:00
2 1983-10-10 12:00:00 Temperatura 2.0 del 10-10-1983 10:00, Menor que la Mínima 2.2 10-10-1983 12:00 2.0 -- 2.2 2011-09-23 22:08:00
2 1983-11-02 12:00:00 Temperatura 9.6 del 02-11-1983 10:00, Menor que la Mínima 9.8 02-11-1983 12:00 9.6 -- 9.8 2011-09-23 22:08:00
2 1983-12-02 12:00:00 Temperatura 2.5 del 02-12-1983 11:00, Menor que la Mínima 5.6 02-12-1983 12:00 2.5 -- 5.6 2011-09-23 22:08:00
2 1983-12-06 12:00:00 Temperatura 4.4 del 06-12-1983 11:00, Menor que la Mínima 6.8 06-12-1983 12:00 4.4 -- 6.8 2011-09-23 22:08:00
2 1983-12-31 12:00:00 Temperatura 3.6 del 31-12-1983 10:00, Menor que la Mínima 4.0 31-12-1983 12:00 3.6 -- 4.0 2011-09-23 22:08:00
2 1984-12-14 12:00:00 Temperatura 4.0 del 14-12-1984 09:00, Menor que la Mínima 5.0 14-12-1984 12:00 4.0 -- 5.0 2011-09-23 22:09:00
2 1984-12-18 12:00:00 Temperatura 8.5 del 18-12-1984 09:00, Menor que la Mínima 8.6 18-12-1984 12:00 8.5 -- 8.6 2011-09-23 22:09:00
2 1985-11-13 12:00:00 Temperatura 0.8 del 13-11-1985 10:00, Menor que la Mínima 1.4 13-11-1985 12:00 0.8 -- 1.4 2011-09-23 22:09:00
2 1985-11-27 12:00:00 Temperatura 7.0 del 27-11-1985 10:00, Menor que la Mínima 7.2 27-11-1985 12:00 7.0 -- 7.2 2011-09-23 22:09:00
2 1986-01-12 12:00:00 Temperatura 9.5 del 12-01-1986 09:00, Menor que la Mínima 9.8 12-01-1986 12:00 9.5 -- 9.8 2011-09-23 22:09:00
2 1987-12-23 12:00:00 Temperatura 12.3 del 23-12-1987 11:00, Menor que la Mínima 12.4 23-12-1987 12:00 12.3 -- 12.4 2011-09-23 22:10:00
2 1988-11-20 12:00:00 Temperatura 8.7 del 20-11-1988 10:00, Menor que la Mínima 8.9 20-11-1988 12:00 8.7 -- 8.9 2011-09-23 22:10:00
2 1989-02-28 12:00:00 Temperatura 7.4 del 28-02-1989 10:00, Menor que la Mínima 7.6 28-02-1989 12:00 7.4 -- 7.6 2011-09-23 22:10:00
2 1991-02-05 12:00:00 Temperatura 6.8 del 05-02-1991 11:00, Menor que la Mínima 8.0 05-02-1991 12:00 6.8 -- 8.0 2011-09-23 22:10:00
2 1992-01-02 12:00:00 Temperatura 7.4 del 02-01-1992 11:00, Menor que la Mínima 7.8 02-01-1992 12:00 7.4 -- 7.8 2011-09-23 22:11:00
2 1992-03-04 12:00:00 Temperatura 8.0 del 04-03-1992 11:00, Menor que la Mínima 11.5 04-03-1992 12:00 8.0 -- 11.5 2011-09-23 22:11:00
2 1993-12-09 12:00:00 Temperatura 8.6 del 09-12-1993 11:00, Menor que la Mínima 9.0 09-12-1993 12:00 8.6 -- 9.0 2011-09-23 22:11:00
2 1995-01-05 12:00:00 Temperatura 9.4 del 05-01-1995 11:00, Menor que la Mínima 9.5 05-01-1995 12:00 9.4 -- 9.5 2011-09-23 22:12:00
2 1996-03-06 12:00:00 Temperatura 11.0 del 06-03-1996 11:00, Menor que la Mínima 11.2 06-03-1996 12:00 11.0 -- 11.2 2011-09-23 22:12:00
2 1997-01-09 12:00:00 Temperatura 10.8 del 09-01-1997 11:00, Menor que la Mínima 11.0 09-01-1997 12:00 10.8 -- 11.0 2011-09-23 22:12:00
2 1997-12-20 12:00:00 Temperatura 11.2 del 20-12-1997 11:00, Menor que la Mínima 11.4 20-12-1997 12:00 11.2 -- 11.4 2011-09-23 22:13:00
2 1998-02-24 12:00:00 Temperatura 9.4 del 24-02-1998 11:00, Menor que la Mínima 14.0 24-02-1998 12:00 9.4 -- 14.0 2011-09-23 22:13:00
2 1999-12-31 12:00:00 Temperatura 6.8 del 31-12-1999 11:00, Menor que la Mínima 7.0 31-12-1999 12:00 6.8 -- 7.0 2011-09-23 22:13:00
2 2000-11-22 12:00:00 Temperatura 7.0 del 22-11-2000 11:00, Menor que la Mínima 8.0 22-11-2000 12:00 7.0 -- 8.0 2011-09-23 22:14:00
2 2000-11-28 12:00:00 Temperatura 4.6 del 28-11-2000 11:00, Menor que la Mínima 8.0 28-11-2000 12:00 4.6 -- 8.0 2011-09-23 22:14:00
2 2001-01-15 12:00:00 Temperatura 12.2 del 15-01-2001 11:00, Menor que la Mínima 12.8 15-01-2001 12:00 12.2 -- 12.8 2011-09-23 22:14:00
2 2001-12-20 12:00:00 Temperatura 9.4 del 20-12-2001 12:00, Menor que la Mínima 9.8 20-12-2001 12:00 9.4 -- 9.8 2011-09-23 22:14:00
2 2006-10-16 12:00:00 Temperatura 2.8 del 16-10-2006 12:00, Menor que la Mínima 10.0 16-10-2006 12:00 2.8 -- 10.0 2011-09-23 22:15:00
2 1966-03-07 00:00:00 Temperatura 16.4 del 06-03-1966 21:00, Mayor que la Máxima 16.0 07-03-1966 00:00 16.4 -- 16.0 2011-09-23 19:06:00
2 1966-03-14 00:00:00 Temperatura 18.8 del 13-03-1966 18:00, Mayor que la Máxima 18.0 14-03-1966 00:00 18.8 -- 18.0 2011-09-23 19:06:00
2 1966-04-05 00:00:00 Temperatura 14.2 del 04-04-1966 18:00, Mayor que la Máxima 14.0 05-04-1966 00:00 14.2 -- 14.0 2011-09-23 19:06:00
2 1966-04-07 00:00:00 Temperatura 11.6 del 06-04-1966 21:00, Mayor que la Máxima 1.4 07-04-1966 00:00 11.6 -- 1.4 2011-09-23 19:06:00
2 1966-05-31 00:00:00 Temperatura 16.2 del 30-05-1966 18:00, Mayor que la Máxima 16.0 31-05-1966 00:00 16.2 -- 16.0 2011-09-23 19:06:00
2 1966-06-05 00:00:00 Temperatura 18.3 del 04-06-1966 18:00, Mayor que la Máxima 13.2 05-06-1966 00:00 18.3 -- 13.2 2011-09-23 19:06:00
2 1966-06-12 00:00:00 Temperatura 6.4 del 11-06-1966 15:00, Mayor que la Máxima 6.2 12-06-1966 00:00 6.4 -- 6.2 2011-09-23 19:06:00
2 1966-06-26 00:00:00 Temperatura 9.2 del 25-06-1966 15:00, Mayor que la Máxima 8.0 26-06-1966 00:00 9.2 -- 8.0 2011-09-23 19:06:00
2 1966-06-30 00:00:00 Temperatura 6.2 del 30-06-1966 00:00, Mayor que la Máxima 6.0 30-06-1966 00:00 6.2 -- 6.0 2011-09-23 19:06:00
2 1966-07-08 00:00:00 Temperatura 10.6 del 07-07-1966 18:00, Mayor que la Máxima 9.0 08-07-1966 00:00 10.6 -- 9.0 2011-09-23 19:06:00
2 1966-08-05 00:00:00 Temperatura 9.2 del 04-08-1966 21:00, Mayor que la Máxima 9.0 05-08-1966 00:00 9.2 -- 9.0 2011-09-23 19:06:00
2 1966-08-15 00:00:00 Temperatura 7.4 del 14-08-1966 15:00, Mayor que la Máxima 7.0 15-08-1966 00:00 7.4 -- 7.0 2011-09-23 19:06:00
2 1976-06-03 00:00:00 Temperatura 8.2 del 02-06-1976 19:00, Mayor que la Máxima 8.0 03-06-1976 00:00 8.2 -- 8.0 2011-09-23 19:06:00
2 1976-06-09 00:00:00 Temperatura 8.8 del 08-06-1976 19:00, Mayor que la Máxima 1.0 09-06-1976 00:00 8.8 -- 1.0 2011-09-23 19:06:00
2 1976-06-12 00:00:00 Temperatura 7.0 del 11-06-1976 18:00, Mayor que la Máxima 1.0 12-06-1976 00:00 7.0 -- 1.0 2011-09-23 19:06:00
2 1976-06-13 00:00:00 Temperatura 11.8 del 12-06-1976 18:00, Mayor que la Máxima 11.0 13-06-1976 00:00 11.8 -- 11.0 2011-09-23 19:06:00
2 1976-06-17 00:00:00 Temperatura 7.6 del 16-06-1976 17:00, Mayor que la Máxima 7.5 17-06-1976 00:00 7.6 -- 7.5 2011-09-23 19:06:00
2 1976-06-21 00:00:00 Temperatura 13.8 del 20-06-1976 16:00, Mayor que la Máxima 1.4 21-06-1976 00:00 13.8 -- 1.4 2011-09-23 19:06:00
2 1976-06-23 00:00:00 Temperatura 12.8 del 22-06-1976 18:00, Mayor que la Máxima 12.4 23-06-1976 00:00 12.8 -- 12.4 2011-09-23 19:06:00
2 1976-06-25 00:00:00 Temperatura 7.8 del 24-06-1976 19:00, Mayor que la Máxima 7.0 25-06-1976 00:00 7.8 -- 7.0 2011-09-23 19:06:00
2 1976-06-27 00:00:00 Temperatura 7.4 del 26-06-1976 23:00, Mayor que la Máxima 0.7 27-06-1976 00:00 7.4 -- 0.7 2011-09-23 19:06:00
2 1976-07-09 00:00:00 Temperatura 7.4 del 08-07-1976 19:00, Mayor que la Máxima 6.2 09-07-1976 00:00 7.4 -- 6.2 2011-09-23 19:06:00
2 1976-07-29 00:00:00 Temperatura 7.0 del 28-07-1976 20:00, Mayor que la Máxima 6.8 29-07-1976 00:00 7.0 -- 6.8 2011-09-23 19:06:00
2 1976-07-30 00:00:00 Temperatura 8.2 del 29-07-1976 20:00, Mayor que la Máxima 8.0 30-07-1976 00:00 8.2 -- 8.0 2011-09-23 19:06:00
2 1976-08-09 00:00:00 Temperatura 9.4 del 08-08-1976 20:00, Mayor que la Máxima 9.0 09-08-1976 00:00 9.4 -- 9.0 2011-09-23 19:06:00
2 1976-08-15 00:00:00 Temperatura 10.4 del 14-08-1976 18:00, Mayor que la Máxima 9.0 15-08-1976 00:00 10.4 -- 9.0 2011-09-23 19:06:00
2 1976-08-22 00:00:00 Temperatura 11.0 del 21-08-1976 16:00, Mayor que la Máxima 9.8 22-08-1976 00:00 11.0 -- 9.8 2011-09-23 19:06:00
2 1976-08-31 00:00:00 Temperatura 11.8 del 30-08-1976 19:00, Mayor que la Máxima 9.6 31-08-1976 00:00 11.8 -- 9.6 2011-09-23 19:06:00
2 1976-09-04 00:00:00 Temperatura 7.6 del 03-09-1976 18:00, Mayor que la Máxima 7.4 04-09-1976 00:00 7.6 -- 7.4 2011-09-23 19:06:00
2 1976-09-17 00:00:00 Temperatura 10.6 del 16-09-1976 18:00, Mayor que la Máxima 10.4 17-09-1976 00:00 10.6 -- 10.4 2011-09-23 19:06:00
2 1976-09-25 00:00:00 Temperatura 12.8 del 24-09-1976 17:00, Mayor que la Máxima 12.4 25-09-1976 00:00 12.8 -- 12.4 2011-09-23 19:06:00
2 1976-09-28 00:00:00 Temperatura 16.2 del 27-09-1976 17:00, Mayor que la Máxima 15.6 28-09-1976 00:00 16.2 -- 15.6 2011-09-23 19:06:00
2 1976-09-30 00:00:00 Temperatura 9.8 del 29-09-1976 20:00, Mayor que la Máxima 9.0 30-09-1976 00:00 9.8 -- 9.0 2011-09-23 19:06:00
2 1976-10-01 00:00:00 Temperatura 21.8 del 30-09-1976 21:00, Mayor que la Máxima 13.6 01-10-1976 00:00 21.8 -- 13.6 2011-09-23 19:06:00
2 1976-11-04 00:00:00 Temperatura 20.4 del 03-11-1976 19:00, Mayor que la Máxima 8.0 04-11-1976 00:00 20.4 -- 8.0 2011-09-23 19:06:00
2 1976-11-06 00:00:00 Temperatura 19.0 del 05-11-1976 17:00, Mayor que la Máxima 11.0 06-11-1976 00:00 19.0 -- 11.0 2011-09-23 19:06:00
2 1976-11-10 00:00:00 Temperatura 17.4 del 09-11-1976 19:00, Mayor que la Máxima 12.0 10-11-1976 00:00 17.4 -- 12.0 2011-09-23 19:06:00
2 1976-11-14 00:00:00 Temperatura 17.4 del 13-11-1976 22:00, Mayor que la Máxima 15.2 14-11-1976 00:00 17.4 -- 15.2 2011-09-23 19:06:00
2 1976-11-15 00:00:00 Temperatura 16.6 del 14-11-1976 17:00, Mayor que la Máxima 11.6 15-11-1976 00:00 16.6 -- 11.6 2011-09-23 19:06:00
2 1976-11-16 00:00:00 Temperatura 15.4 del 15-11-1976 16:00, Mayor que la Máxima 1.5 16-11-1976 00:00 15.4 -- 1.5 2011-09-23 19:06:00
2 1976-11-22 00:00:00 Temperatura 15.2 del 21-11-1976 19:00, Mayor que la Máxima 15.0 22-11-1976 00:00 15.2 -- 15.0 2011-09-23 19:06:00
2 1976-11-23 00:00:00 Temperatura 16.8 del 22-11-1976 19:00, Mayor que la Máxima 16.6 23-11-1976 00:00 16.8 -- 16.6 2011-09-23 19:06:00
2 1976-11-27 00:00:00 Temperatura 14.8 del 26-11-1976 14:00, Mayor que la Máxima 14.6 27-11-1976 00:00 14.8 -- 14.6 2011-09-23 19:06:00
2 1976-11-30 00:00:00 Temperatura 15.6 del 29-11-1976 16:00, Mayor que la Máxima 15.4 30-11-1976 00:00 15.6 -- 15.4 2011-09-23 19:06:00
2 1976-12-05 00:00:00 Temperatura 13.6 del 04-12-1976 17:00, Mayor que la Máxima 13.0 05-12-1976 00:00 13.6 -- 13.0 2011-09-23 19:06:00
2 1976-12-09 00:00:00 Temperatura 14.6 del 08-12-1976 20:00, Mayor que la Máxima 14.4 09-12-1976 00:00 14.6 -- 14.4 2011-09-23 19:06:00
2 1976-12-15 00:00:00 Temperatura 19.6 del 14-12-1976 15:00, Mayor que la Máxima 18.8 15-12-1976 00:00 19.6 -- 18.8 2011-09-23 19:06:00
2 1977-01-05 00:00:00 Temperatura 18.0 del 04-01-1977 22:00, Mayor que la Máxima 17.0 05-01-1977 00:00 18.0 -- 17.0 2011-09-23 19:06:00
2 1977-01-08 00:00:00 Temperatura 28.6 del 07-01-1977 17:00, Mayor que la Máxima 21.0 08-01-1977 00:00 28.6 -- 21.0 2011-09-23 19:06:00
2 1977-01-20 00:00:00 Temperatura 25.6 del 19-01-1977 14:00, Mayor que la Máxima 18.0 20-01-1977 00:00 25.6 -- 18.0 2011-09-23 19:06:00
2 1977-02-03 00:00:00 Temperatura 17.8 del 02-02-1977 20:00, Mayor que la Máxima 17.2 03-02-1977 00:00 17.8 -- 17.2 2011-09-23 19:06:00
2 1977-03-21 00:00:00 Temperatura 20.0 del 20-03-1977 16:00, Mayor que la Máxima 16.0 21-03-1977 00:00 20.0 -- 16.0 2011-09-23 19:07:00
2 1977-04-03 00:00:00 Temperatura 15.4 del 02-04-1977 16:00, Mayor que la Máxima 15.0 03-04-1977 00:00 15.4 -- 15.0 2011-09-23 19:07:00
2 1977-04-06 00:00:00 Temperatura 18.8 del 05-04-1977 17:00, Mayor que la Máxima 15.8 06-04-1977 00:00 18.8 -- 15.8 2011-09-23 19:07:00
2 1977-04-09 00:00:00 Temperatura 12.6 del 08-04-1977 17:00, Mayor que la Máxima 12.0 09-04-1977 00:00 12.6 -- 12.0 2011-09-23 19:07:00
2 1977-04-13 00:00:00 Temperatura 14.4 del 12-04-1977 16:00, Mayor que la Máxima 14.0 13-04-1977 00:00 14.4 -- 14.0 2011-09-23 19:07:00
2 1977-04-14 00:00:00 Temperatura 13.8 del 13-04-1977 17:00, Mayor que la Máxima 12.6 14-04-1977 00:00 13.8 -- 12.6 2011-09-23 19:07:00
2 1977-04-23 00:00:00 Temperatura 18.8 del 22-04-1977 17:00, Mayor que la Máxima 18.6 23-04-1977 00:00 18.8 -- 18.6 2011-09-23 19:07:00
2 1977-04-27 00:00:00 Temperatura 19.8 del 26-04-1977 19:00, Mayor que la Máxima 18.4 27-04-1977 00:00 19.8 -- 18.4 2011-09-23 19:07:00
2 1977-05-11 00:00:00 Temperatura 11.0 del 10-05-1977 18:00, Mayor que la Máxima 9.0 11-05-1977 00:00 11.0 -- 9.0 2011-09-23 19:07:00
2 1977-05-13 00:00:00 Temperatura 14.6 del 12-05-1977 13:00, Mayor que la Máxima 14.4 13-05-1977 00:00 14.6 -- 14.4 2011-09-23 19:07:00
2 1977-05-17 00:00:00 Temperatura 14.6 del 16-05-1977 17:00, Mayor que la Máxima 14.0 17-05-1977 00:00 14.6 -- 14.0 2011-09-23 19:07:00
2 1977-05-21 00:00:00 Temperatura 11.4 del 20-05-1977 19:00, Mayor que la Máxima 11.2 21-05-1977 00:00 11.4 -- 11.2 2011-09-23 19:07:00
2 1977-05-28 00:00:00 Temperatura 10.2 del 27-05-1977 13:00, Mayor que la Máxima 9.0 28-05-1977 00:00 10.2 -- 9.0 2011-09-23 19:07:00
2 1977-05-30 00:00:00 Temperatura 22.0 del 29-05-1977 21:00, Mayor que la Máxima 13.4 30-05-1977 00:00 22.0 -- 13.4 2011-09-23 19:07:00
2 1977-06-07 00:00:00 Temperatura 11.6 del 06-06-1977 23:00, Mayor que la Máxima 10.4 07-06-1977 00:00 11.6 -- 10.4 2011-09-23 19:07:00
2 1977-06-25 00:00:00 Temperatura 11.7 del 24-06-1977 18:00, Mayor que la Máxima 8.2 25-06-1977 00:00 11.7 -- 8.2 2011-09-23 19:07:00
2 1977-07-07 00:00:00 Temperatura 9.6 del 06-07-1977 16:00, Mayor que la Máxima 9.2 07-07-1977 00:00 9.6 -- 9.2 2011-09-23 19:07:00
2 1977-07-12 00:00:00 Temperatura 8.0 del 11-07-1977 16:00, Mayor que la Máxima 7.8 12-07-1977 00:00 8.0 -- 7.8 2011-09-23 19:07:00
2 1977-07-22 00:00:00 Temperatura 9.6 del 21-07-1977 16:00, Mayor que la Máxima 8.9 22-07-1977 00:00 9.6 -- 8.9 2011-09-23 19:07:00
2 1977-07-28 00:00:00 Temperatura 8.6 del 27-07-1977 21:00, Mayor que la Máxima 5.1 28-07-1977 00:00 8.6 -- 5.1 2011-09-23 19:07:00
2 1977-07-29 00:00:00 Temperatura 8.8 del 28-07-1977 20:00, Mayor que la Máxima 7.2 29-07-1977 00:00 8.8 -- 7.2 2011-09-23 19:07:00
2 1977-08-03 00:00:00 Temperatura 6.0 del 02-08-1977 13:00, Mayor que la Máxima 5.6 03-08-1977 00:00 6.0 -- 5.6 2011-09-23 19:07:00
2 1977-08-08 00:00:00 Temperatura 12.4 del 07-08-1977 14:00, Mayor que la Máxima 11.8 08-08-1977 00:00 12.4 -- 11.8 2011-09-23 19:07:00
2 1977-08-24 00:00:00 Temperatura 12.2 del 23-08-1977 23:00, Mayor que la Máxima 12.0 24-08-1977 00:00 12.2 -- 12.0 2011-09-23 19:07:00
2 1977-09-16 00:00:00 Temperatura 11.0 del 15-09-1977 19:00, Mayor que la Máxima 10.8 16-09-1977 00:00 11.0 -- 10.8 2011-09-23 19:07:00
2 1977-09-28 00:00:00 Temperatura 11.0 del 27-09-1977 19:00, Mayor que la Máxima 10.8 28-09-1977 00:00 11.0 -- 10.8 2011-09-23 19:07:00
2 1977-12-09 00:00:00 Temperatura 15.4 del 08-12-1977 19:00, Mayor que la Máxima 15.2 09-12-1977 00:00 15.4 -- 15.2 2011-09-23 19:07:00
2 1977-12-16 00:00:00 Temperatura 17.6 del 15-12-1977 19:00, Mayor que la Máxima 17.2 16-12-1977 00:00 17.6 -- 17.2 2011-09-23 19:07:00
2 1977-12-18 00:00:00 Temperatura 18.8 del 17-12-1977 19:00, Mayor que la Máxima 18.2 18-12-1977 00:00 18.8 -- 18.2 2011-09-23 19:07:00
2 1978-01-04 00:00:00 Temperatura 17.8 del 03-01-1978 15:00, Mayor que la Máxima 17.4 04-01-1978 00:00 17.8 -- 17.4 2011-09-23 19:07:00
2 1978-01-09 00:00:00 Temperatura 16.4 del 08-01-1978 15:00, Mayor que la Máxima 10.2 09-01-1978 00:00 16.4 -- 10.2 2011-09-23 19:07:00
2 1978-01-12 00:00:00 Temperatura 18.4 del 11-01-1978 19:00, Mayor que la Máxima 17.9 12-01-1978 00:00 18.4 -- 17.9 2011-09-23 19:07:00
2 1978-01-23 00:00:00 Temperatura 16.4 del 22-01-1978 22:00, Mayor que la Máxima 16.0 23-01-1978 00:00 16.4 -- 16.0 2011-09-23 19:07:00
2 1978-01-25 00:00:00 Temperatura 16.0 del 24-01-1978 17:00, Mayor que la Máxima 14.6 25-01-1978 00:00 16.0 -- 14.6 2011-09-23 19:07:00
2 1978-02-11 00:00:00 Temperatura 16.8 del 10-02-1978 20:00, Mayor que la Máxima 16.2 11-02-1978 00:00 16.8 -- 16.2 2011-09-23 19:07:00
2 1978-02-18 00:00:00 Temperatura 25.4 del 17-02-1978 16:00, Mayor que la Máxima 25.0 18-02-1978 00:00 25.4 -- 25.0 2011-09-23 19:07:00
2 1978-03-05 00:00:00 Temperatura 16.4 del 04-03-1978 20:00, Mayor que la Máxima 16.0 05-03-1978 00:00 16.4 -- 16.0 2011-09-23 19:07:00
2 1978-03-07 00:00:00 Temperatura 17.4 del 06-03-1978 18:00, Mayor que la Máxima 16.8 07-03-1978 00:00 17.4 -- 16.8 2011-09-23 19:07:00
2 1978-06-02 00:00:00 Temperatura 10.6 del 01-06-1978 17:00, Mayor que la Máxima 10.0 02-06-1978 00:00 10.6 -- 10.0 2011-09-23 19:07:00
2 1978-06-04 00:00:00 Temperatura 9.8 del 03-06-1978 16:00, Mayor que la Máxima 9.4 04-06-1978 00:00 9.8 -- 9.4 2011-09-23 19:07:00
2 1978-06-19 00:00:00 Temperatura 6.2 del 18-06-1978 17:00, Mayor que la Máxima 5.8 19-06-1978 00:00 6.2 -- 5.8 2011-09-23 19:07:00
2 1978-06-24 00:00:00 Temperatura 11.2 del 23-06-1978 19:00, Mayor que la Máxima 11.0 24-06-1978 00:00 11.2 -- 11.0 2011-09-23 19:07:00
2 1978-07-03 00:00:00 Temperatura 10.6 del 02-07-1978 16:00, Mayor que la Máxima 9.8 03-07-1978 00:00 10.6 -- 9.8 2011-09-23 19:07:00
2 1978-07-07 00:00:00 Temperatura 14.6 del 06-07-1978 18:00, Mayor que la Máxima 1.5 07-07-1978 00:00 14.6 -- 1.5 2011-09-23 19:07:00
2 1978-07-13 00:00:00 Temperatura 12.6 del 12-07-1978 13:00, Mayor que la Máxima 10.6 13-07-1978 00:00 12.6 -- 10.6 2011-09-23 19:07:00
2 1978-07-21 00:00:00 Temperatura 8.5 del 20-07-1978 19:00, Mayor que la Máxima 8.2 21-07-1978 00:00 8.5 -- 8.2 2011-09-23 19:07:00
2 1978-09-01 00:00:00 Temperatura 9.2 del 31-08-1978 22:00, Mayor que la Máxima 8.4 01-09-1978 00:00 9.2 -- 8.4 2011-09-23 19:07:00
2 1978-09-06 00:00:00 Temperatura 11.2 del 05-09-1978 20:00, Mayor que la Máxima 11.0 06-09-1978 00:00 11.2 -- 11.0 2011-09-23 19:07:00
2 1978-09-11 00:00:00 Temperatura 14.2 del 10-09-1978 16:00, Mayor que la Máxima 13.0 11-09-1978 00:00 14.2 -- 13.0 2011-09-23 19:07:00
2 1978-10-28 00:00:00 Temperatura 12.6 del 27-10-1978 17:00, Mayor que la Máxima 1.3 28-10-1978 00:00 12.6 -- 1.3 2011-09-23 19:07:00
2 1978-11-10 00:00:00 Temperatura 12.0 del 09-11-1978 18:00, Mayor que la Máxima 11.6 10-11-1978 00:00 12.0 -- 11.6 2011-09-23 19:07:00
2 1978-12-13 00:00:00 Temperatura 18.4 del 12-12-1978 19:00, Mayor que la Máxima 10.7 13-12-1978 00:00 18.4 -- 10.7 2011-09-23 19:07:00
2 1978-12-17 00:00:00 Temperatura 19.0 del 16-12-1978 21:00, Mayor que la Máxima 18.8 17-12-1978 00:00 19.0 -- 18.8 2011-09-23 19:07:00
2 1979-01-04 00:00:00 Temperatura 20.3 del 03-01-1979 15:00, Mayor que la Máxima 17.4 04-01-1979 00:00 20.3 -- 17.4 2011-09-23 19:07:00
2 1979-01-08 00:00:00 Temperatura 22.7 del 07-01-1979 21:00, Mayor que la Máxima 22.4 08-01-1979 00:00 22.7 -- 22.4 2011-09-23 19:07:00
2 1979-01-10 00:00:00 Temperatura 16.0 del 09-01-1979 14:00, Mayor que la Máxima 15.4 10-01-1979 00:00 16.0 -- 15.4 2011-09-23 19:07:00
2 1979-01-21 00:00:00 Temperatura 21.0 del 20-01-1979 19:00, Mayor que la Máxima 20.6 21-01-1979 00:00 21.0 -- 20.6 2011-09-23 19:07:00
2 1979-01-31 00:00:00 Temperatura 19.8 del 30-01-1979 19:00, Mayor que la Máxima 19.2 31-01-1979 00:00 19.8 -- 19.2 2011-09-23 19:07:00
2 1979-02-04 00:00:00 Temperatura 20.6 del 03-02-1979 20:00, Mayor que la Máxima 20.4 04-02-1979 00:00 20.6 -- 20.4 2011-09-23 19:07:00
2 1979-02-08 00:00:00 Temperatura 18.8 del 07-02-1979 18:00, Mayor que la Máxima 18.0 08-02-1979 00:00 18.8 -- 18.0 2011-09-23 19:07:00
2 1979-03-10 00:00:00 Temperatura 17.8 del 09-03-1979 21:00, Mayor que la Máxima 11.2 10-03-1979 00:00 17.8 -- 11.2 2011-09-23 19:07:00
2 1979-03-29 00:00:00 Temperatura 14.5 del 28-03-1979 15:00, Mayor que la Máxima 10.4 29-03-1979 00:00 14.5 -- 10.4 2011-09-23 19:07:00
2 1979-04-11 00:00:00 Temperatura 17.0 del 10-04-1979 17:00, Mayor que la Máxima 15.4 11-04-1979 00:00 17.0 -- 15.4 2011-09-23 19:07:00
2 1979-04-18 00:00:00 Temperatura 18.5 del 17-04-1979 20:00, Mayor que la Máxima 16.2 18-04-1979 00:00 18.5 -- 16.2 2011-09-23 19:07:00
2 1979-04-21 00:00:00 Temperatura 14.2 del 20-04-1979 20:00, Mayor que la Máxima 14.0 21-04-1979 00:00 14.2 -- 14.0 2011-09-23 19:07:00
2 1979-05-10 00:00:00 Temperatura 12.0 del 09-05-1979 18:00, Mayor que la Máxima 10.4 10-05-1979 00:00 12.0 -- 10.4 2011-09-23 19:07:00
2 1979-05-13 00:00:00 Temperatura 14.0 del 12-05-1979 22:00, Mayor que la Máxima 13.6 13-05-1979 00:00 14.0 -- 13.6 2011-09-23 19:07:00
2 1979-05-17 00:00:00 Temperatura 13.2 del 16-05-1979 21:00, Mayor que la Máxima 13.1 17-05-1979 00:00 13.2 -- 13.1 2011-09-23 19:07:00
2 1979-06-09 00:00:00 Temperatura 9.5 del 08-06-1979 17:00, Mayor que la Máxima 9.2 09-06-1979 00:00 9.5 -- 9.2 2011-09-23 19:07:00
2 1979-06-15 00:00:00 Temperatura 10.8 del 14-06-1979 19:00, Mayor que la Máxima 8.0 15-06-1979 00:00 10.8 -- 8.0 2011-09-23 19:07:00
2 1979-06-16 00:00:00 Temperatura 11.2 del 15-06-1979 14:00, Mayor que la Máxima 11.0 16-06-1979 00:00 11.2 -- 11.0 2011-09-23 19:07:00
2 1979-06-27 00:00:00 Temperatura 12.0 del 26-06-1979 15:00, Mayor que la Máxima 11.8 27-06-1979 00:00 12.0 -- 11.8 2011-09-23 19:07:00
2 1979-07-16 00:00:00 Temperatura 10.5 del 15-07-1979 20:00, Mayor que la Máxima 10.4 16-07-1979 00:00 10.5 -- 10.4 2011-09-23 19:07:00
2 1979-07-22 00:00:00 Temperatura 8.6 del 21-07-1979 20:00, Mayor que la Máxima 8.4 22-07-1979 00:00 8.6 -- 8.4 2011-09-23 19:07:00
2 1979-07-29 00:00:00 Temperatura 11.0 del 28-07-1979 13:00, Mayor que la Máxima 10.8 29-07-1979 00:00 11.0 -- 10.8 2011-09-23 19:07:00
2 1979-08-12 00:00:00 Temperatura 11.3 del 11-08-1979 18:00, Mayor que la Máxima 11.0 12-08-1979 00:00 11.3 -- 11.0 2011-09-23 19:07:00
2 1979-08-21 00:00:00 Temperatura 14.8 del 20-08-1979 14:00, Mayor que la Máxima 14.0 21-08-1979 00:00 14.8 -- 14.0 2011-09-23 19:07:00
2 1979-08-24 00:00:00 Temperatura 13.4 del 23-08-1979 16:00, Mayor que la Máxima 13.2 24-08-1979 00:00 13.4 -- 13.2 2011-09-23 19:07:00
2 1979-09-07 00:00:00 Temperatura 22.0 del 06-09-1979 14:00, Mayor que la Máxima 21.2 07-09-1979 00:00 22.0 -- 21.2 2011-09-23 19:07:00
2 1979-09-09 00:00:00 Temperatura 14.4 del 08-09-1979 21:00, Mayor que la Máxima 14.3 09-09-1979 00:00 14.4 -- 14.3 2011-09-23 19:07:00
2 1979-09-24 00:00:00 Temperatura 8.8 del 23-09-1979 21:00, Mayor que la Máxima 8.2 24-09-1979 00:00 8.8 -- 8.2 2011-09-23 19:07:00
2 1979-10-16 00:00:00 Temperatura 13.4 del 15-10-1979 17:00, Mayor que la Máxima 13.2 16-10-1979 00:00 13.4 -- 13.2 2011-09-23 19:07:00
2 1979-10-17 00:00:00 Temperatura 16.6 del 16-10-1979 21:00, Mayor que la Máxima 15.8 17-10-1979 00:00 16.6 -- 15.8 2011-09-23 19:07:00
2 1979-10-21 00:00:00 Temperatura 11.2 del 20-10-1979 16:00, Mayor que la Máxima 11.0 21-10-1979 00:00 11.2 -- 11.0 2011-09-23 19:07:00
2 1979-11-15 00:00:00 Temperatura 15.0 del 14-11-1979 15:00, Mayor que la Máxima 14.7 15-11-1979 00:00 15.0 -- 14.7 2011-09-23 19:07:00
2 1979-11-16 00:00:00 Temperatura 17.2 del 15-11-1979 15:00, Mayor que la Máxima 15.2 16-11-1979 00:00 17.2 -- 15.2 2011-09-23 19:07:00
2 1979-11-23 00:00:00 Temperatura 16.0 del 22-11-1979 20:00, Mayor que la Máxima 15.6 23-11-1979 00:00 16.0 -- 15.6 2011-09-23 19:07:00
2 1979-11-28 00:00:00 Temperatura 15.6 del 27-11-1979 19:00, Mayor que la Máxima 15.5 28-11-1979 00:00 15.6 -- 15.5 2011-09-23 19:07:00
2 1979-12-16 00:00:00 Temperatura 17.8 del 15-12-1979 20:00, Mayor que la Máxima 17.6 16-12-1979 00:00 17.8 -- 17.6 2011-09-23 19:07:00
2 1980-01-17 00:00:00 Temperatura 20.6 del 16-01-1980 20:00, Mayor que la Máxima 20.0 17-01-1980 00:00 20.6 -- 20.0 2011-09-23 19:07:00
2 1980-01-23 00:00:00 Temperatura 15.0 del 22-01-1980 19:00, Mayor que la Máxima 14.6 23-01-1980 00:00 15.0 -- 14.6 2011-09-23 19:07:00
2 1980-02-03 00:00:00 Temperatura 14.0 del 02-02-1980 14:00, Mayor que la Máxima 13.8 03-02-1980 00:00 14.0 -- 13.8 2011-09-23 19:07:00
2 1980-02-29 00:00:00 Temperatura 17.8 del 28-02-1980 23:00, Mayor que la Máxima 15.4 29-02-1980 00:00 17.8 -- 15.4 2011-09-23 19:07:00
2 1980-03-30 00:00:00 Temperatura 16.6 del 29-03-1980 17:00, Mayor que la Máxima 16.0 30-03-1980 00:00 16.6 -- 16.0 2011-09-23 19:07:00
2 1980-05-24 00:00:00 Temperatura 12.4 del 23-05-1980 13:00, Mayor que la Máxima 11.0 24-05-1980 00:00 12.4 -- 11.0 2011-09-23 19:08:00
2 1980-07-08 00:00:00 Temperatura 8.4 del 07-07-1980 20:00, Mayor que la Máxima 8.0 08-07-1980 00:00 8.4 -- 8.0 2011-09-23 19:08:00
2 1980-07-26 00:00:00 Temperatura 10.2 del 25-07-1980 13:00, Mayor que la Máxima 10.0 26-07-1980 00:00 10.2 -- 10.0 2011-09-23 19:08:00
2 1980-07-27 00:00:00 Temperatura 7.4 del 26-07-1980 19:00, Mayor que la Máxima 7.2 27-07-1980 00:00 7.4 -- 7.2 2011-09-23 19:08:00
2 1980-10-10 00:00:00 Temperatura 13.2 del 09-10-1980 20:00, Mayor que la Máxima 13.0 10-10-1980 00:00 13.2 -- 13.0 2011-09-23 19:08:00
2 1980-10-15 00:00:00 Temperatura 15.0 del 14-10-1980 20:00, Mayor que la Máxima 14.7 15-10-1980 00:00 15.0 -- 14.7 2011-09-23 19:08:00
2 1980-11-02 00:00:00 Temperatura 16.0 del 01-11-1980 19:00, Mayor que la Máxima 15.8 02-11-1980 00:00 16.0 -- 15.8 2011-09-23 19:08:00
2 1980-11-27 00:00:00 Temperatura 16.6 del 26-11-1980 19:00, Mayor que la Máxima 16.0 27-11-1980 00:00 16.6 -- 16.0 2011-09-23 19:08:00
2 1981-02-11 00:00:00 Temperatura 15.2 del 10-02-1981 18:00, Mayor que la Máxima 15.0 11-02-1981 00:00 15.2 -- 15.0 2011-09-23 19:08:00
2 1981-02-13 00:00:00 Temperatura 15.8 del 12-02-1981 20:00, Mayor que la Máxima 15.6 13-02-1981 00:00 15.8 -- 15.6 2011-09-23 19:08:00
2 1981-02-15 00:00:00 Temperatura 17.5 del 14-02-1981 17:00, Mayor que la Máxima 16.0 15-02-1981 00:00 17.5 -- 16.0 2011-09-23 19:08:00
2 1981-02-18 00:00:00 Temperatura 15.8 del 17-02-1981 20:00, Mayor que la Máxima 15.0 18-02-1981 00:00 15.8 -- 15.0 2011-09-23 19:08:00
2 1981-03-04 00:00:00 Temperatura 18.4 del 03-03-1981 20:00, Mayor que la Máxima 18.0 04-03-1981 00:00 18.4 -- 18.0 2011-09-23 19:08:00
2 1981-04-01 00:00:00 Temperatura 17.0 del 31-03-1981 15:00, Mayor que la Máxima 16.8 01-04-1981 00:00 17.0 -- 16.8 2011-09-23 19:08:00
2 1981-04-06 00:00:00 Temperatura 17.0 del 05-04-1981 18:00, Mayor que la Máxima 16.2 06-04-1981 00:00 17.0 -- 16.2 2011-09-23 19:08:00
2 1981-04-19 00:00:00 Temperatura 22.4 del 18-04-1981 17:00, Mayor que la Máxima 22.0 19-04-1981 00:00 22.4 -- 22.0 2011-09-23 19:08:00
2 1981-04-30 00:00:00 Temperatura 17.5 del 29-04-1981 15:00, Mayor que la Máxima 17.4 30-04-1981 00:00 17.5 -- 17.4 2011-09-23 19:08:00
2 1981-05-15 00:00:00 Temperatura 15.6 del 14-05-1981 17:00, Mayor que la Máxima 15.4 15-05-1981 00:00 15.6 -- 15.4 2011-09-23 19:08:00
2 1981-05-17 00:00:00 Temperatura 15.2 del 16-05-1981 18:00, Mayor que la Máxima 15.0 17-05-1981 00:00 15.2 -- 15.0 2011-09-23 19:08:00
2 1981-07-17 00:00:00 Temperatura 5.6 del 16-07-1981 18:00, Mayor que la Máxima 5.4 17-07-1981 00:00 5.6 -- 5.4 2011-09-23 19:08:00
2 1981-08-10 00:00:00 Temperatura 11.2 del 09-08-1981 17:00, Mayor que la Máxima 11.0 10-08-1981 00:00 11.2 -- 11.0 2011-09-23 19:08:00
2 1981-09-15 00:00:00 Temperatura 12.5 del 14-09-1981 16:00, Mayor que la Máxima 12.0 15-09-1981 00:00 12.5 -- 12.0 2011-09-23 19:08:00
2 1981-10-30 00:00:00 Temperatura 13.5 del 29-10-1981 16:00, Mayor que la Máxima 13.4 30-10-1981 00:00 13.5 -- 13.4 2011-09-23 19:08:00
2 1981-12-23 00:00:00 Temperatura 16.5 del 22-12-1981 20:00, Mayor que la Máxima 16.4 23-12-1981 00:00 16.5 -- 16.4 2011-09-23 19:08:00
2 1982-01-30 00:00:00 Temperatura 17.5 del 29-01-1982 16:00, Mayor que la Máxima 17.4 30-01-1982 00:00 17.5 -- 17.4 2011-09-23 19:08:00
2 1982-01-31 00:00:00 Temperatura 18.5 del 30-01-1982 20:00, Mayor que la Máxima 18.3 31-01-1982 00:00 18.5 -- 18.3 2011-09-23 19:08:00
2 1982-02-02 00:00:00 Temperatura 16.0 del 01-02-1982 14:00, Mayor que la Máxima 15.4 02-02-1982 00:00 16.0 -- 15.4 2011-09-23 19:08:00
2 1982-02-03 00:00:00 Temperatura 12.0 del 02-02-1982 13:00, Mayor que la Máxima 11.5 03-02-1982 00:00 12.0 -- 11.5 2011-09-23 19:08:00
2 1982-02-07 00:00:00 Temperatura 17.0 del 06-02-1982 19:00, Mayor que la Máxima 16.4 07-02-1982 00:00 17.0 -- 16.4 2011-09-23 19:08:00
2 1982-02-10 00:00:00 Temperatura 18.0 del 09-02-1982 18:00, Mayor que la Máxima 17.8 10-02-1982 00:00 18.0 -- 17.8 2011-09-23 19:08:00
2 1982-03-09 00:00:00 Temperatura 16.4 del 08-03-1982 16:00, Mayor que la Máxima 16.0 09-03-1982 00:00 16.4 -- 16.0 2011-09-23 19:08:00
2 1982-03-14 00:00:00 Temperatura 17.0 del 13-03-1982 21:00, Mayor que la Máxima 16.0 14-03-1982 00:00 17.0 -- 16.0 2011-09-23 19:08:00
2 1982-03-20 00:00:00 Temperatura 17.2 del 19-03-1982 22:00, Mayor que la Máxima 15.4 20-03-1982 00:00 17.2 -- 15.4 2011-09-23 19:08:00
2 1982-04-05 00:00:00 Temperatura 18.7 del 04-04-1982 21:00, Mayor que la Máxima 18.4 05-04-1982 00:00 18.7 -- 18.4 2011-09-23 19:08:00
2 1982-04-11 00:00:00 Temperatura 15.0 del 10-04-1982 13:00, Mayor que la Máxima 14.8 11-04-1982 00:00 15.0 -- 14.8 2011-09-23 19:08:00
2 1982-05-03 00:00:00 Temperatura 18.0 del 02-05-1982 19:00, Mayor que la Máxima 17.6 03-05-1982 00:00 18.0 -- 17.6 2011-09-23 19:08:00
2 1982-05-05 00:00:00 Temperatura 16.0 del 04-05-1982 16:00, Mayor que la Máxima 15.2 05-05-1982 00:00 16.0 -- 15.2 2011-09-23 19:08:00
2 1982-05-10 00:00:00 Temperatura 15.7 del 09-05-1982 15:00, Mayor que la Máxima 15.4 10-05-1982 00:00 15.7 -- 15.4 2011-09-23 19:08:00
2 1982-05-17 00:00:00 Temperatura 16.8 del 16-05-1982 17:00, Mayor que la Máxima 16.5 17-05-1982 00:00 16.8 -- 16.5 2011-09-23 19:08:00
2 1982-06-13 00:00:00 Temperatura 16.6 del 12-06-1982 13:00, Mayor que la Máxima 7.2 13-06-1982 00:00 16.6 -- 7.2 2011-09-23 19:08:00
2 1982-06-25 00:00:00 Temperatura 14.2 del 24-06-1982 22:00, Mayor que la Máxima 5.4 25-06-1982 00:00 14.2 -- 5.4 2011-09-23 19:08:00
2 1982-06-26 00:00:00 Temperatura 16.5 del 25-06-1982 14:00, Mayor que la Máxima 7.8 26-06-1982 00:00 16.5 -- 7.8 2011-09-23 19:08:00
2 1982-08-04 00:00:00 Temperatura 9.0 del 03-08-1982 16:00, Mayor que la Máxima 8.2 04-08-1982 00:00 9.0 -- 8.2 2011-09-23 19:08:00
2 1982-08-28 00:00:00 Temperatura 8.8 del 27-08-1982 14:00, Mayor que la Máxima 8.7 28-08-1982 00:00 8.8 -- 8.7 2011-09-23 19:08:00
2 1982-09-19 00:00:00 Temperatura 19.4 del 18-09-1982 20:00, Mayor que la Máxima 12.0 19-09-1982 00:00 19.4 -- 12.0 2011-09-23 19:08:00
2 1982-11-01 00:00:00 Temperatura 13.0 del 31-10-1982 15:00, Mayor que la Máxima 12.0 01-11-1982 00:00 13.0 -- 12.0 2011-09-23 19:08:00
2 1982-11-18 00:00:00 Temperatura 14.0 del 17-11-1982 14:00, Mayor que la Máxima 13.8 18-11-1982 00:00 14.0 -- 13.8 2011-09-23 19:08:00
2 1982-12-06 00:00:00 Temperatura 16.2 del 05-12-1982 16:00, Mayor que la Máxima 16.0 06-12-1982 00:00 16.2 -- 16.0 2011-09-23 19:08:00
2 1982-12-23 00:00:00 Temperatura 16.0 del 22-12-1982 15:00, Mayor que la Máxima 15.4 23-12-1982 00:00 16.0 -- 15.4 2011-09-23 19:08:00
2 1983-01-14 00:00:00 Temperatura 20.0 del 13-01-1983 20:00, Mayor que la Máxima 19.4 14-01-1983 00:00 20.0 -- 19.4 2011-09-23 19:08:00
2 1983-01-29 00:00:00 Temperatura 18.6 del 28-01-1983 23:00, Mayor que la Máxima 17.4 29-01-1983 00:00 18.6 -- 17.4 2011-09-23 19:08:00
2 1983-01-31 00:00:00 Temperatura 16.6 del 30-01-1983 17:00, Mayor que la Máxima 16.0 31-01-1983 00:00 16.6 -- 16.0 2011-09-23 19:08:00
2 1983-02-12 00:00:00 Temperatura 16.5 del 11-02-1983 18:00, Mayor que la Máxima 16.4 12-02-1983 00:00 16.5 -- 16.4 2011-09-23 19:08:00
2 1983-02-15 00:00:00 Temperatura 17.7 del 14-02-1983 18:00, Mayor que la Máxima 17.6 15-02-1983 00:00 17.7 -- 17.6 2011-09-23 19:08:00
2 1983-02-20 00:00:00 Temperatura 18.7 del 19-02-1983 13:00, Mayor que la Máxima 16.0 20-02-1983 00:00 18.7 -- 16.0 2011-09-23 19:08:00
2 1983-03-04 00:00:00 Temperatura 14.5 del 03-03-1983 17:00, Mayor que la Máxima 13.6 04-03-1983 00:00 14.5 -- 13.6 2011-09-23 19:08:00
2 1983-03-10 00:00:00 Temperatura 15.7 del 09-03-1983 20:00, Mayor que la Máxima 15.2 10-03-1983 00:00 15.7 -- 15.2 2011-09-23 19:08:00
2 1983-03-14 00:00:00 Temperatura 16.5 del 13-03-1983 19:00, Mayor que la Máxima 16.4 14-03-1983 00:00 16.5 -- 16.4 2011-09-23 19:08:00
2 1983-03-19 00:00:00 Temperatura 15.6 del 18-03-1983 18:00, Mayor que la Máxima 15.5 19-03-1983 00:00 15.6 -- 15.5 2011-09-23 19:08:00
2 1983-03-29 00:00:00 Temperatura 26.0 del 28-03-1983 19:00, Mayor que la Máxima 16.0 29-03-1983 00:00 26.0 -- 16.0 2011-09-23 19:08:00
2 1983-04-02 00:00:00 Temperatura 15.4 del 01-04-1983 15:00, Mayor que la Máxima 14.8 02-04-1983 00:00 15.4 -- 14.8 2011-09-23 19:08:00
2 1983-05-09 00:00:00 Temperatura 10.2 del 08-05-1983 19:00, Mayor que la Máxima 10.0 09-05-1983 00:00 10.2 -- 10.0 2011-09-23 19:09:00
2 1983-05-12 00:00:00 Temperatura 13.2 del 11-05-1983 16:00, Mayor que la Máxima 13.0 12-05-1983 00:00 13.2 -- 13.0 2011-09-23 19:09:00
2 1983-05-14 00:00:00 Temperatura 16.0 del 13-05-1983 20:00, Mayor que la Máxima 14.8 14-05-1983 00:00 16.0 -- 14.8 2011-09-23 19:09:00
2 1983-05-31 00:00:00 Temperatura 12.2 del 30-05-1983 19:00, Mayor que la Máxima 11.0 31-05-1983 00:00 12.2 -- 11.0 2011-09-23 19:09:00
2 1983-06-08 00:00:00 Temperatura 7.8 del 07-06-1983 18:00, Mayor que la Máxima 7.4 08-06-1983 00:00 7.8 -- 7.4 2011-09-23 19:09:00
2 1983-07-15 00:00:00 Temperatura 9.6 del 14-07-1983 19:00, Mayor que la Máxima 9.3 15-07-1983 00:00 9.6 -- 9.3 2011-09-23 19:09:00
2 1983-08-03 00:00:00 Temperatura 12.6 del 02-08-1983 20:00, Mayor que la Máxima 11.6 03-08-1983 00:00 12.6 -- 11.6 2011-09-23 19:09:00
2 1983-08-08 00:00:00 Temperatura 11.3 del 07-08-1983 20:00, Mayor que la Máxima 11.0 08-08-1983 00:00 11.3 -- 11.0 2011-09-23 19:09:00
2 1983-08-13 00:00:00 Temperatura 8.8 del 12-08-1983 18:00, Mayor que la Máxima 8.7 13-08-1983 00:00 8.8 -- 8.7 2011-09-23 19:09:00
2 1983-11-04 00:00:00 Temperatura 15.7 del 03-11-1983 14:00, Mayor que la Máxima 15.0 04-11-1983 00:00 15.7 -- 15.0 2011-09-23 19:09:00
2 1983-11-19 00:00:00 Temperatura 14.8 del 18-11-1983 17:00, Mayor que la Máxima 14.6 19-11-1983 00:00 14.8 -- 14.6 2011-09-23 19:09:00
2 1983-12-02 00:00:00 Temperatura 16.6 del 01-12-1983 15:00, Mayor que la Máxima 16.2 02-12-1983 00:00 16.6 -- 16.2 2011-09-23 19:09:00
2 1983-12-31 00:00:00 Temperatura 19.8 del 30-12-1983 19:00, Mayor que la Máxima 17.2 31-12-1983 00:00 19.8 -- 17.2 2011-09-23 19:09:00
2 1984-05-01 00:00:00 Temperatura 14.1 del 30-04-1984 14:00, Mayor que la Máxima 14.0 01-05-1984 00:00 14.1 -- 14.0 2011-09-23 19:09:00
2 1984-05-03 00:00:00 Temperatura 11.0 del 02-05-1984 15:00, Mayor que la Máxima 10.6 03-05-1984 00:00 11.0 -- 10.6 2011-09-23 19:09:00
2 1984-05-11 00:00:00 Temperatura 8.2 del 10-05-1984 16:00, Mayor que la Máxima 7.7 11-05-1984 00:00 8.2 -- 7.7 2011-09-23 19:09:00
2 1984-05-26 00:00:00 Temperatura 8.5 del 25-05-1984 18:00, Mayor que la Máxima 8.4 26-05-1984 00:00 8.5 -- 8.4 2011-09-23 19:09:00
2 1984-06-06 00:00:00 Temperatura 11.1 del 05-06-1984 19:00, Mayor que la Máxima 10.5 06-06-1984 00:00 11.1 -- 10.5 2011-09-23 19:09:00
2 1984-06-18 00:00:00 Temperatura 11.5 del 17-06-1984 20:00, Mayor que la Máxima 8.0 18-06-1984 00:00 11.5 -- 8.0 2011-09-23 19:09:00
2 1984-07-11 00:00:00 Temperatura 7.5 del 10-07-1984 20:00, Mayor que la Máxima 7.2 11-07-1984 00:00 7.5 -- 7.2 2011-09-23 19:09:00
2 1984-09-23 00:00:00 Temperatura 11.6 del 22-09-1984 16:00, Mayor que la Máxima 11.5 23-09-1984 00:00 11.6 -- 11.5 2011-09-23 19:09:00
2 1984-10-26 00:00:00 Temperatura 11.2 del 25-10-1984 19:00, Mayor que la Máxima 11.0 26-10-1984 00:00 11.2 -- 11.0 2011-09-23 19:09:00
2 1984-11-15 00:00:00 Temperatura 15.5 del 14-11-1984 18:00, Mayor que la Máxima 15.4 15-11-1984 00:00 15.5 -- 15.4 2011-09-23 19:09:00
2 1985-03-15 00:00:00 Temperatura 15.5 del 14-03-1985 21:00, Mayor que la Máxima 15.0 15-03-1985 00:00 15.5 -- 15.0 2011-09-23 19:09:00
2 1985-04-22 00:00:00 Temperatura 11.8 del 21-04-1985 17:00, Mayor que la Máxima 11.7 22-04-1985 00:00 11.8 -- 11.7 2011-09-23 19:09:00
2 1985-05-16 00:00:00 Temperatura 14.8 del 15-05-1985 17:00, Mayor que la Máxima 13.6 16-05-1985 00:00 14.8 -- 13.6 2011-09-23 19:09:00
2 1985-05-25 00:00:00 Temperatura 13.2 del 24-05-1985 17:00, Mayor que la Máxima 13.0 25-05-1985 00:00 13.2 -- 13.0 2011-09-23 19:09:00
2 1985-06-26 00:00:00 Temperatura 13.6 del 25-06-1985 18:00, Mayor que la Máxima 13.4 26-06-1985 00:00 13.6 -- 13.4 2011-09-23 19:09:00
2 1985-08-14 00:00:00 Temperatura 11.8 del 13-08-1985 14:00, Mayor que la Máxima 10.0 14-08-1985 00:00 11.8 -- 10.0 2011-09-23 19:09:00
2 1985-10-31 00:00:00 Temperatura 13.2 del 30-10-1985 15:00, Mayor que la Máxima 13.0 31-10-1985 00:00 13.2 -- 13.0 2011-09-23 19:09:00
2 1986-01-15 00:00:00 Temperatura 15.2 del 14-01-1986 17:00, Mayor que la Máxima 15.0 15-01-1986 00:00 15.2 -- 15.0 2011-09-23 19:09:00
2 1986-02-12 00:00:00 Temperatura 15.8 del 11-02-1986 13:00, Mayor que la Máxima 15.6 12-02-1986 00:00 15.8 -- 15.6 2011-09-23 19:09:00
2 1986-02-20 00:00:00 Temperatura 17.6 del 19-02-1986 14:00, Mayor que la Máxima 15.6 20-02-1986 00:00 17.6 -- 15.6 2011-09-23 19:09:00
2 1986-05-14 00:00:00 Temperatura 10.3 del 13-05-1986 19:00, Mayor que la Máxima 10.0 14-05-1986 00:00 10.3 -- 10.0 2011-09-23 19:10:00
2 1986-06-02 00:00:00 Temperatura 14.6 del 01-06-1986 20:00, Mayor que la Máxima 14.4 02-06-1986 00:00 14.6 -- 14.4 2011-09-23 19:10:00
2 1986-07-09 00:00:00 Temperatura 16.2 del 08-07-1986 13:00, Mayor que la Máxima 15.5 09-07-1986 00:00 16.2 -- 15.5 2011-09-23 19:10:00
2 1986-07-21 00:00:00 Temperatura 8.4 del 20-07-1986 19:00, Mayor que la Máxima 6.6 21-07-1986 00:00 8.4 -- 6.6 2011-09-23 19:10:00
2 1986-11-08 00:00:00 Temperatura 12.0 del 07-11-1986 14:00, Mayor que la Máxima 11.8 08-11-1986 00:00 12.0 -- 11.8 2011-09-23 19:10:00
2 1987-01-09 00:00:00 Temperatura 15.5 del 08-01-1987 17:00, Mayor que la Máxima 15.1 09-01-1987 00:00 15.5 -- 15.1 2011-09-23 19:10:00
2 1987-02-05 00:00:00 Temperatura 14.4 del 04-02-1987 16:00, Mayor que la Máxima 14.2 05-02-1987 00:00 14.4 -- 14.2 2011-09-23 19:10:00
2 1987-02-27 00:00:00 Temperatura 22.6 del 26-02-1987 19:00, Mayor que la Máxima 21.0 27-02-1987 00:00 22.6 -- 21.0 2011-09-23 19:10:00
2 1987-03-06 00:00:00 Temperatura 17.2 del 05-03-1987 23:00, Mayor que la Máxima 15.2 06-03-1987 00:00 17.2 -- 15.2 2011-09-23 19:10:00
2 1987-03-09 00:00:00 Temperatura 16.6 del 08-03-1987 18:00, Mayor que la Máxima 16.4 09-03-1987 00:00 16.6 -- 16.4 2011-09-23 19:10:00
2 1987-03-11 00:00:00 Temperatura 19.7 del 10-03-1987 19:00, Mayor que la Máxima 11.7 11-03-1987 00:00 19.7 -- 11.7 2011-09-23 19:10:00
2 1987-03-15 00:00:00 Temperatura 16.6 del 14-03-1987 17:00, Mayor que la Máxima 16.4 15-03-1987 00:00 16.6 -- 16.4 2011-09-23 19:10:00
2 1987-05-11 00:00:00 Temperatura 11.8 del 10-05-1987 14:00, Mayor que la Máxima 11.5 11-05-1987 00:00 11.8 -- 11.5 2011-09-23 19:10:00
2 1988-01-30 00:00:00 Temperatura 19.2 del 29-01-1988 20:00, Mayor que la Máxima 18.7 30-01-1988 00:00 19.2 -- 18.7 2011-09-23 19:10:00
2 1988-02-19 00:00:00 Temperatura 17.4 del 18-02-1988 20:00, Mayor que la Máxima 17.2 19-02-1988 00:00 17.4 -- 17.2 2011-09-23 19:10:00
2 1988-02-21 00:00:00 Temperatura 19.7 del 20-02-1988 21:00, Mayor que la Máxima 19.3 21-02-1988 00:00 19.7 -- 19.3 2011-09-23 19:10:00
2 1988-02-23 00:00:00 Temperatura 16.9 del 22-02-1988 13:00, Mayor que la Máxima 15.4 23-02-1988 00:00 16.9 -- 15.4 2011-09-23 19:10:00
2 1988-03-28 00:00:00 Temperatura 15.0 del 27-03-1988 21:00, Mayor que la Máxima 14.8 28-03-1988 00:00 15.0 -- 14.8 2011-09-23 19:10:00
2 1988-06-30 00:00:00 Temperatura 9.0 del 29-06-1988 19:00, Mayor que la Máxima 8.8 30-06-1988 00:00 9.0 -- 8.8 2011-09-23 19:10:00
2 1988-07-07 00:00:00 Temperatura 6.9 del 06-07-1988 18:00, Mayor que la Máxima 6.7 07-07-1988 00:00 6.9 -- 6.7 2011-09-23 19:10:00
2 1988-07-13 00:00:00 Temperatura 9.3 del 12-07-1988 17:00, Mayor que la Máxima 9.2 13-07-1988 00:00 9.3 -- 9.2 2011-09-23 19:10:00
2 1988-07-22 00:00:00 Temperatura 10.8 del 21-07-1988 19:00, Mayor que la Máxima 10.3 22-07-1988 00:00 10.8 -- 10.3 2011-09-23 19:10:00
2 1988-08-30 00:00:00 Temperatura 9.3 del 29-08-1988 18:00, Mayor que la Máxima 9.2 30-08-1988 00:00 9.3 -- 9.2 2011-09-23 19:10:00
2 1988-08-31 00:00:00 Temperatura 8.6 del 30-08-1988 18:00, Mayor que la Máxima 8.4 31-08-1988 00:00 8.6 -- 8.4 2011-09-23 19:10:00
2 1988-09-08 00:00:00 Temperatura 11.0 del 07-09-1988 18:00, Mayor que la Máxima 10.6 08-09-1988 00:00 11.0 -- 10.6 2011-09-23 19:10:00
2 1988-10-02 00:00:00 Temperatura 15.1 del 01-10-1988 20:00, Mayor que la Máxima 14.7 02-10-1988 00:00 15.1 -- 14.7 2011-09-23 19:10:00
2 1988-10-19 00:00:00 Temperatura 9.2 del 18-10-1988 20:00, Mayor que la Máxima 8.9 19-10-1988 00:00 9.2 -- 8.9 2011-09-23 19:10:00
2 1988-10-20 00:00:00 Temperatura 9.4 del 19-10-1988 15:00, Mayor que la Máxima 8.8 20-10-1988 00:00 9.4 -- 8.8 2011-09-23 19:10:00
2 1988-10-22 00:00:00 Temperatura 10.8 del 21-10-1988 15:00, Mayor que la Máxima 10.5 22-10-1988 00:00 10.8 -- 10.5 2011-09-23 19:10:00
2 1988-11-21 00:00:00 Temperatura 12.7 del 20-11-1988 18:00, Mayor que la Máxima 12.5 21-11-1988 00:00 12.7 -- 12.5 2011-09-23 19:10:00
2 1988-12-17 00:00:00 Temperatura 15.0 del 16-12-1988 22:00, Mayor que la Máxima 14.8 17-12-1988 00:00 15.0 -- 14.8 2011-09-23 19:10:00
2 1988-12-19 00:00:00 Temperatura 12.8 del 18-12-1988 18:00, Mayor que la Máxima 12.6 19-12-1988 00:00 12.8 -- 12.6 2011-09-23 19:10:00
2 1989-02-03 00:00:00 Temperatura 17.6 del 02-02-1989 21:00, Mayor que la Máxima 17.4 03-02-1989 00:00 17.6 -- 17.4 2011-09-23 19:10:00
2 1989-02-25 00:00:00 Temperatura 18.4 del 24-02-1989 22:00, Mayor que la Máxima 18.3 25-02-1989 00:00 18.4 -- 18.3 2011-09-23 19:10:00
2 1989-04-19 00:00:00 Temperatura 14.9 del 18-04-1989 20:00, Mayor que la Máxima 14.7 19-04-1989 00:00 14.9 -- 14.7 2011-09-23 19:10:00
2 1989-07-08 00:00:00 Temperatura 7.4 del 07-07-1989 19:00, Mayor que la Máxima 7.2 08-07-1989 00:00 7.4 -- 7.2 2011-09-23 19:10:00
2 1989-07-12 00:00:00 Temperatura 14.9 del 11-07-1989 16:00, Mayor que la Máxima 14.2 12-07-1989 00:00 14.9 -- 14.2 2011-09-23 19:10:00
2 1989-07-17 00:00:00 Temperatura 12.4 del 16-07-1989 17:00, Mayor que la Máxima 11.8 17-07-1989 00:00 12.4 -- 11.8 2011-09-23 19:10:00
2 1989-07-20 00:00:00 Temperatura 10.2 del 19-07-1989 17:00, Mayor que la Máxima 10.0 20-07-1989 00:00 10.2 -- 10.0 2011-09-23 19:10:00
2 1989-09-19 00:00:00 Temperatura 12.0 del 18-09-1989 16:00, Mayor que la Máxima 11.9 19-09-1989 00:00 12.0 -- 11.9 2011-09-23 19:10:00
2 1989-09-26 00:00:00 Temperatura 13.4 del 25-09-1989 18:00, Mayor que la Máxima 13.1 26-09-1989 00:00 13.4 -- 13.1 2011-09-23 19:10:00
2 1989-10-16 00:00:00 Temperatura 13.7 del 15-10-1989 17:00, Mayor que la Máxima 13.6 16-10-1989 00:00 13.7 -- 13.6 2011-09-23 19:10:00
2 1989-10-24 00:00:00 Temperatura 16.8 del 23-10-1989 16:00, Mayor que la Máxima 11.9 24-10-1989 00:00 16.8 -- 11.9 2011-09-23 19:11:00
2 1989-12-06 00:00:00 Temperatura 14.4 del 05-12-1989 21:00, Mayor que la Máxima 13.5 06-12-1989 00:00 14.4 -- 13.5 2011-09-23 19:11:00
2 1989-12-16 00:00:00 Temperatura 19.2 del 15-12-1989 17:00, Mayor que la Máxima 17.2 16-12-1989 00:00 19.2 -- 17.2 2011-09-23 19:11:00
2 1990-01-04 00:00:00 Temperatura 15.8 del 03-01-1990 20:00, Mayor que la Máxima 15.5 04-01-1990 00:00 15.8 -- 15.5 2011-09-23 19:11:00
2 1990-01-15 00:00:00 Temperatura 19.2 del 14-01-1990 16:00, Mayor que la Máxima 18.6 15-01-1990 00:00 19.2 -- 18.6 2011-09-23 19:11:00
2 1990-01-25 00:00:00 Temperatura 14.9 del 24-01-1990 16:00, Mayor que la Máxima 14.6 25-01-1990 00:00 14.9 -- 14.6 2011-09-23 19:11:00
2 1990-02-17 00:00:00 Temperatura 17.4 del 16-02-1990 21:00, Mayor que la Máxima 16.9 17-02-1990 00:00 17.4 -- 16.9 2011-09-23 19:11:00
2 1990-04-09 00:00:00 Temperatura 17.2 del 08-04-1990 13:00, Mayor que la Máxima 17.0 09-04-1990 00:00 17.2 -- 17.0 2011-09-23 19:11:00
2 1990-06-15 00:00:00 Temperatura 9.5 del 14-06-1990 18:00, Mayor que la Máxima 9.4 15-06-1990 00:00 9.5 -- 9.4 2011-09-23 19:11:00
2 1990-07-17 00:00:00 Temperatura 8.5 del 16-07-1990 22:00, Mayor que la Máxima 7.1 17-07-1990 00:00 8.5 -- 7.1 2011-09-23 19:11:00
2 1990-09-13 00:00:00 Temperatura 10.8 del 12-09-1990 21:00, Mayor que la Máxima 10.6 13-09-1990 00:00 10.8 -- 10.6 2011-09-23 19:11:00
2 1991-02-17 00:00:00 Temperatura 17.9 del 16-02-1991 15:00, Mayor que la Máxima 17.6 17-02-1991 00:00 17.9 -- 17.6 2011-09-23 19:11:00
2 1991-03-06 00:00:00 Temperatura 16.4 del 05-03-1991 19:00, Mayor que la Máxima 16.2 06-03-1991 00:00 16.4 -- 16.2 2011-09-23 19:11:00
2 1991-06-26 00:00:00 Temperatura 13.0 del 25-06-1991 17:00, Mayor que la Máxima 12.8 26-06-1991 00:00 13.0 -- 12.8 2011-09-23 19:11:00
2 1991-10-02 00:00:00 Temperatura 6.3 del 01-10-1991 16:00, Mayor que la Máxima 6.2 02-10-1991 00:00 6.3 -- 6.2 2011-09-23 19:11:00
2 1991-11-14 00:00:00 Temperatura 16.6 del 13-11-1991 20:00, Mayor que la Máxima 16.2 14-11-1991 00:00 16.6 -- 16.2 2011-09-23 19:11:00
2 1991-12-16 00:00:00 Temperatura 12.2 del 15-12-1991 13:00, Mayor que la Máxima 11.8 16-12-1991 00:00 12.2 -- 11.8 2011-09-23 19:11:00
2 1991-12-22 00:00:00 Temperatura 17.0 del 21-12-1991 19:00, Mayor que la Máxima 16.8 22-12-1991 00:00 17.0 -- 16.8 2011-09-23 19:11:00
2 1991-12-27 00:00:00 Temperatura 17.8 del 26-12-1991 18:00, Mayor que la Máxima 17.4 27-12-1991 00:00 17.8 -- 17.4 2011-09-23 19:11:00
2 1991-12-30 00:00:00 Temperatura 15.0 del 29-12-1991 18:00, Mayor que la Máxima 14.9 30-12-1991 00:00 15.0 -- 14.9 2011-09-23 19:11:00
2 1992-02-14 00:00:00 Temperatura 16.7 del 13-02-1992 19:00, Mayor que la Máxima 16.6 14-02-1992 00:00 16.7 -- 16.6 2011-09-23 19:11:00
2 1992-02-16 00:00:00 Temperatura 18.2 del 15-02-1992 22:00, Mayor que la Máxima 18.1 16-02-1992 00:00 18.2 -- 18.1 2011-09-23 19:11:00
2 1992-05-09 00:00:00 Temperatura 9.2 del 08-05-1992 13:00, Mayor que la Máxima 8.8 09-05-1992 00:00 9.2 -- 8.8 2011-09-23 19:11:00
2 1992-08-26 00:00:00 Temperatura 10.7 del 25-08-1992 19:00, Mayor que la Máxima 10.6 26-08-1992 00:00 10.7 -- 10.6 2011-09-23 19:11:00
2 1992-11-27 00:00:00 Temperatura 20.8 del 26-11-1992 14:00, Mayor que la Máxima 20.6 27-11-1992 00:00 20.8 -- 20.6 2011-09-23 19:11:00
2 1992-12-05 00:00:00 Temperatura 15.5 del 04-12-1992 15:00, Mayor que la Máxima 15.2 05-12-1992 00:00 15.5 -- 15.2 2011-09-23 19:11:00
2 1993-03-14 00:00:00 Temperatura 15.6 del 13-03-1993 19:00, Mayor que la Máxima 15.4 14-03-1993 00:00 15.6 -- 15.4 2011-09-23 19:12:00
2 1993-04-28 00:00:00 Temperatura 10.4 del 27-04-1993 18:00, Mayor que la Máxima 10.2 28-04-1993 00:00 10.4 -- 10.2 2011-09-23 19:12:00
2 1993-06-03 00:00:00 Temperatura 14.0 del 02-06-1993 13:00, Mayor que la Máxima 13.4 03-06-1993 00:00 14.0 -- 13.4 2011-09-23 19:12:00
2 1993-08-18 00:00:00 Temperatura 10.4 del 17-08-1993 17:00, Mayor que la Máxima 10.2 18-08-1993 00:00 10.4 -- 10.2 2011-09-23 19:12:00
2 1993-08-30 00:00:00 Temperatura 11.4 del 29-08-1993 14:00, Mayor que la Máxima 10.4 30-08-1993 00:00 11.4 -- 10.4 2011-09-23 19:12:00
2 1993-12-01 00:00:00 Temperatura 9.8 del 30-11-1993 13:00, Mayor que la Máxima 9.3 01-12-1993 00:00 9.8 -- 9.3 2011-09-23 19:12:00
2 1994-01-10 00:00:00 Temperatura 23.9 del 09-01-1994 20:00, Mayor que la Máxima 23.5 10-01-1994 00:00 23.9 -- 23.5 2011-09-23 19:12:00
2 1994-01-21 00:00:00 Temperatura 16.0 del 20-01-1994 20:00, Mayor que la Máxima 15.6 21-01-1994 00:00 16.0 -- 15.6 2011-09-23 19:12:00
2 1994-06-24 00:00:00 Temperatura 9.2 del 23-06-1994 13:00, Mayor que la Máxima 8.8 24-06-1994 00:00 9.2 -- 8.8 2011-09-23 19:12:00
2 1994-10-05 00:00:00 Temperatura 11.2 del 04-10-1994 17:00, Mayor que la Máxima 11.0 05-10-1994 00:00 11.2 -- 11.0 2011-09-23 19:12:00
2 1994-10-17 00:00:00 Temperatura 11.2 del 16-10-1994 21:00, Mayor que la Máxima 11.0 17-10-1994 00:00 11.2 -- 11.0 2011-09-23 19:12:00
2 1995-02-08 00:00:00 Temperatura 19.6 del 07-02-1995 14:00, Mayor que la Máxima 17.0 08-02-1995 00:00 19.6 -- 17.0 2011-09-23 19:12:00
2 1995-02-10 00:00:00 Temperatura 17.7 del 09-02-1995 18:00, Mayor que la Máxima 17.5 10-02-1995 00:00 17.7 -- 17.5 2011-09-23 19:12:00
2 1995-02-18 00:00:00 Temperatura 19.0 del 17-02-1995 14:00, Mayor que la Máxima 17.5 18-02-1995 00:00 19.0 -- 17.5 2011-09-23 19:12:00
2 1995-03-20 00:00:00 Temperatura 18.6 del 19-03-1995 23:00, Mayor que la Máxima 14.4 20-03-1995 00:00 18.6 -- 14.4 2011-09-23 19:12:00
2 1995-04-11 00:00:00 Temperatura 13.4 del 10-04-1995 20:00, Mayor que la Máxima 12.8 11-04-1995 00:00 13.4 -- 12.8 2011-09-23 19:12:00
2 1995-06-10 00:00:00 Temperatura 5.6 del 09-06-1995 17:00, Mayor que la Máxima 5.4 10-06-1995 00:00 5.6 -- 5.4 2011-09-23 19:12:00
2 1995-07-07 00:00:00 Temperatura 8.4 del 06-07-1995 16:00, Mayor que la Máxima 6.8 07-07-1995 00:00 8.4 -- 6.8 2011-09-23 19:12:00
2 1995-07-08 00:00:00 Temperatura 10.4 del 07-07-1995 20:00, Mayor que la Máxima 10.0 08-07-1995 00:00 10.4 -- 10.0 2011-09-23 19:12:00
2 1995-07-16 00:00:00 Temperatura 4.2 del 15-07-1995 15:00, Mayor que la Máxima 4.1 16-07-1995 00:00 4.2 -- 4.1 2011-09-23 19:12:00
2 1995-07-17 00:00:00 Temperatura 11.1 del 16-07-1995 14:00, Mayor que la Máxima 4.3 17-07-1995 00:00 11.1 -- 4.3 2011-09-23 19:12:00
2 1995-07-19 00:00:00 Temperatura 11.6 del 18-07-1995 14:00, Mayor que la Máxima 6.0 19-07-1995 00:00 11.6 -- 6.0 2011-09-23 19:12:00
2 1995-07-27 00:00:00 Temperatura 6.4 del 26-07-1995 21:00, Mayor que la Máxima 6.2 27-07-1995 00:00 6.4 -- 6.2 2011-09-23 19:12:00
2 1995-08-07 00:00:00 Temperatura 7.2 del 06-08-1995 20:00, Mayor que la Máxima 7.0 07-08-1995 00:00 7.2 -- 7.0 2011-09-23 19:12:00
2 1995-08-26 00:00:00 Temperatura 13.4 del 25-08-1995 16:00, Mayor que la Máxima 9.2 26-08-1995 00:00 13.4 -- 9.2 2011-09-23 19:12:00
2 1995-09-02 00:00:00 Temperatura 9.1 del 01-09-1995 21:00, Mayor que la Máxima 8.9 02-09-1995 00:00 9.1 -- 8.9 2011-09-23 19:12:00
2 1995-09-09 00:00:00 Temperatura 9.8 del 08-09-1995 17:00, Mayor que la Máxima 9.0 09-09-1995 00:00 9.8 -- 9.0 2011-09-23 19:12:00
2 1995-09-26 00:00:00 Temperatura 8.0 del 25-09-1995 18:00, Mayor que la Máxima 7.4 26-09-1995 00:00 8.0 -- 7.4 2011-09-23 19:12:00
2 1995-10-08 00:00:00 Temperatura 18.0 del 07-10-1995 14:00, Mayor que la Máxima 12.5 08-10-1995 00:00 18.0 -- 12.5 2011-09-23 19:12:00
2 1995-10-17 00:00:00 Temperatura 11.2 del 17-10-1995 00:00, Mayor que la Máxima 10.0 17-10-1995 00:00 11.2 -- 10.0 2011-09-23 19:12:00
2 1995-10-26 00:00:00 Temperatura 18.6 del 25-10-1995 13:00, Mayor que la Máxima 13.0 26-10-1995 00:00 18.6 -- 13.0 2011-09-23 19:12:00
2 1995-12-03 00:00:00 Temperatura 17.9 del 02-12-1995 19:00, Mayor que la Máxima 17.8 03-12-1995 00:00 17.9 -- 17.8 2011-09-23 19:12:00
2 1995-12-24 00:00:00 Temperatura 18.8 del 23-12-1995 14:00, Mayor que la Máxima 18.0 24-12-1995 00:00 18.8 -- 18.0 2011-09-23 19:12:00
2 1996-01-14 00:00:00 Temperatura 16.2 del 13-01-1996 22:00, Mayor que la Máxima 16.0 14-01-1996 00:00 16.2 -- 16.0 2011-09-23 19:12:00
2 1996-02-19 00:00:00 Temperatura 21.0 del 18-02-1996 15:00, Mayor que la Máxima 20.6 19-02-1996 00:00 21.0 -- 20.6 2011-09-23 19:12:00
2 1996-02-21 00:00:00 Temperatura 18.9 del 20-02-1996 20:00, Mayor que la Máxima 14.2 21-02-1996 00:00 18.9 -- 14.2 2011-09-23 19:12:00
2 1996-04-03 00:00:00 Temperatura 13.8 del 02-04-1996 17:00, Mayor que la Máxima 13.6 03-04-1996 00:00 13.8 -- 13.6 2011-09-23 19:13:00
2 1996-04-08 00:00:00 Temperatura 16.6 del 07-04-1996 22:00, Mayor que la Máxima 16.4 08-04-1996 00:00 16.6 -- 16.4 2011-09-23 19:13:00
2 1996-04-17 00:00:00 Temperatura 12.0 del 16-04-1996 18:00, Mayor que la Máxima 11.6 17-04-1996 00:00 12.0 -- 11.6 2011-09-23 19:13:00
2 1996-04-20 00:00:00 Temperatura 12.8 del 19-04-1996 19:00, Mayor que la Máxima 12.4 20-04-1996 00:00 12.8 -- 12.4 2011-09-23 19:13:00
2 1996-04-29 00:00:00 Temperatura 13.4 del 28-04-1996 19:00, Mayor que la Máxima 12.6 29-04-1996 00:00 13.4 -- 12.6 2011-09-23 19:13:00
2 1996-05-02 00:00:00 Temperatura 16.4 del 01-05-1996 20:00, Mayor que la Máxima 14.4 02-05-1996 00:00 16.4 -- 14.4 2011-09-23 19:13:00
2 1996-05-06 00:00:00 Temperatura 16.8 del 05-05-1996 16:00, Mayor que la Máxima 16.6 06-05-1996 00:00 16.8 -- 16.6 2011-09-23 19:13:00
2 1996-05-13 00:00:00 Temperatura 13.6 del 12-05-1996 17:00, Mayor que la Máxima 13.2 13-05-1996 00:00 13.6 -- 13.2 2011-09-23 19:13:00
2 1996-05-17 00:00:00 Temperatura 11.4 del 16-05-1996 19:00, Mayor que la Máxima 11.2 17-05-1996 00:00 11.4 -- 11.2 2011-09-23 19:13:00
2 1996-05-26 00:00:00 Temperatura 10.4 del 25-05-1996 17:00, Mayor que la Máxima 10.2 26-05-1996 00:00 10.4 -- 10.2 2011-09-23 19:13:00
2 1996-06-08 00:00:00 Temperatura 12.2 del 07-06-1996 19:00, Mayor que la Máxima 11.0 08-06-1996 00:00 12.2 -- 11.0 2011-09-23 19:13:00
2 1996-07-28 00:00:00 Temperatura 9.6 del 27-07-1996 19:00, Mayor que la Máxima 9.4 28-07-1996 00:00 9.6 -- 9.4 2011-09-23 19:13:00
2 1996-07-30 00:00:00 Temperatura 13.9 del 29-07-1996 14:00, Mayor que la Máxima 13.6 30-07-1996 00:00 13.9 -- 13.6 2011-09-23 19:13:00
2 1996-08-02 00:00:00 Temperatura 10.8 del 01-08-1996 20:00, Mayor que la Máxima 10.6 02-08-1996 00:00 10.8 -- 10.6 2011-09-23 19:13:00
2 1996-08-03 00:00:00 Temperatura 9.8 del 02-08-1996 17:00, Mayor que la Máxima 9.6 03-08-1996 00:00 9.8 -- 9.6 2011-09-23 19:13:00
2 1996-08-21 00:00:00 Temperatura 12.0 del 20-08-1996 15:00, Mayor que la Máxima 11.2 21-08-1996 00:00 12.0 -- 11.2 2011-09-23 19:13:00
2 1996-08-23 00:00:00 Temperatura 5.2 del 22-08-1996 14:00, Mayor que la Máxima 4.6 23-08-1996 00:00 5.2 -- 4.6 2011-09-23 19:13:00
2 1996-08-27 00:00:00 Temperatura 7.8 del 26-08-1996 19:00, Mayor que la Máxima 7.6 27-08-1996 00:00 7.8 -- 7.6 2011-09-23 19:13:00
2 1996-09-19 00:00:00 Temperatura 13.2 del 18-09-1996 18:00, Mayor que la Máxima 13.0 19-09-1996 00:00 13.2 -- 13.0 2011-09-23 19:13:00
2 1996-09-25 00:00:00 Temperatura 23.6 del 24-09-1996 21:00, Mayor que la Máxima 23.4 25-09-1996 00:00 23.6 -- 23.4 2011-09-23 19:13:00
2 1996-10-17 00:00:00 Temperatura 12.4 del 16-10-1996 17:00, Mayor que la Máxima 11.6 17-10-1996 00:00 12.4 -- 11.6 2011-09-23 19:13:00
2 1996-11-18 00:00:00 Temperatura 12.8 del 17-11-1996 13:00, Mayor que la Máxima 12.2 18-11-1996 00:00 12.8 -- 12.2 2011-09-23 19:13:00
2 1996-11-20 00:00:00 Temperatura 17.2 del 19-11-1996 17:00, Mayor que la Máxima 17.0 20-11-1996 00:00 17.2 -- 17.0 2011-09-23 19:13:00
2 1996-12-06 00:00:00 Temperatura 17.4 del 05-12-1996 21:00, Mayor que la Máxima 17.2 06-12-1996 00:00 17.4 -- 17.2 2011-09-23 19:13:00
2 1996-12-09 00:00:00 Temperatura 17.8 del 08-12-1996 22:00, Mayor que la Máxima 17.6 09-12-1996 00:00 17.8 -- 17.6 2011-09-23 19:13:00
2 1996-12-18 00:00:00 Temperatura 19.2 del 17-12-1996 22:00, Mayor que la Máxima 14.2 18-12-1996 00:00 19.2 -- 14.2 2011-09-23 19:13:00
2 1996-12-19 00:00:00 Temperatura 17.8 del 18-12-1996 19:00, Mayor que la Máxima 14.6 19-12-1996 00:00 17.8 -- 14.6 2011-09-23 19:13:00
2 1997-01-05 00:00:00 Temperatura 17.4 del 04-01-1997 16:00, Mayor que la Máxima 16.8 05-01-1997 00:00 17.4 -- 16.8 2011-09-23 19:13:00
2 1997-01-06 00:00:00 Temperatura 12.6 del 05-01-1997 23:00, Mayor que la Máxima 12.4 06-01-1997 00:00 12.6 -- 12.4 2011-09-23 19:13:00
2 1997-01-14 00:00:00 Temperatura 15.8 del 13-01-1997 23:00, Mayor que la Máxima 15.6 14-01-1997 00:00 15.8 -- 15.6 2011-09-23 19:13:00
2 1997-02-02 00:00:00 Temperatura 14.0 del 01-02-1997 19:00, Mayor que la Máxima 13.8 02-02-1997 00:00 14.0 -- 13.8 2011-09-23 19:13:00
2 1997-02-17 00:00:00 Temperatura 15.9 del 16-02-1997 17:00, Mayor que la Máxima 15.8 17-02-1997 00:00 15.9 -- 15.8 2011-09-23 19:13:00
2 1997-03-11 00:00:00 Temperatura 21.4 del 10-03-1997 20:00, Mayor que la Máxima 20.6 11-03-1997 00:00 21.4 -- 20.6 2011-09-23 19:13:00
2 1997-05-15 00:00:00 Temperatura 14.0 del 14-05-1997 19:00, Mayor que la Máxima 13.8 15-05-1997 00:00 14.0 -- 13.8 2011-09-23 19:13:00
2 1997-06-26 00:00:00 Temperatura 7.6 del 25-06-1997 17:00, Mayor que la Máxima 7.2 26-06-1997 00:00 7.6 -- 7.2 2011-09-23 19:13:00
2 1997-09-08 00:00:00 Temperatura 8.8 del 07-09-1997 23:00, Mayor que la Máxima 7.0 08-09-1997 00:00 8.8 -- 7.0 2011-09-23 19:13:00
2 1997-10-05 00:00:00 Temperatura 9.8 del 04-10-1997 14:00, Mayor que la Máxima 9.6 05-10-1997 00:00 9.8 -- 9.6 2011-09-23 19:13:00
2 1997-10-22 00:00:00 Temperatura 12.4 del 21-10-1997 17:00, Mayor que la Máxima 12.2 22-10-1997 00:00 12.4 -- 12.2 2011-09-23 19:13:00
2 1997-12-01 00:00:00 Temperatura 12.6 del 30-11-1997 17:00, Mayor que la Máxima 11.8 01-12-1997 00:00 12.6 -- 11.8 2011-09-23 19:13:00
2 1997-12-24 00:00:00 Temperatura 17.3 del 23-12-1997 20:00, Mayor que la Máxima 17.2 24-12-1997 00:00 17.3 -- 17.2 2011-09-23 19:13:00
2 1998-01-23 00:00:00 Temperatura 15.0 del 22-01-1998 18:00, Mayor que la Máxima 14.8 23-01-1998 00:00 15.0 -- 14.8 2011-09-23 19:13:00
2 1998-04-01 00:00:00 Temperatura 20.2 del 31-03-1998 16:00, Mayor que la Máxima 20.0 01-04-1998 00:00 20.2 -- 20.0 2011-09-23 19:13:00
2 1998-04-11 00:00:00 Temperatura 18.8 del 10-04-1998 18:00, Mayor que la Máxima 18.6 11-04-1998 00:00 18.8 -- 18.6 2011-09-23 19:13:00
2 1998-04-14 00:00:00 Temperatura 17.9 del 13-04-1998 17:00, Mayor que la Máxima 17.6 14-04-1998 00:00 17.9 -- 17.6 2011-09-23 19:13:00
2 1998-04-17 00:00:00 Temperatura 14.1 del 16-04-1998 16:00, Mayor que la Máxima 14.0 17-04-1998 00:00 14.1 -- 14.0 2011-09-23 19:13:00
2 1998-04-26 00:00:00 Temperatura 18.0 del 25-04-1998 19:00, Mayor que la Máxima 17.8 26-04-1998 00:00 18.0 -- 17.8 2011-09-23 19:13:00
2 1998-06-10 00:00:00 Temperatura 14.6 del 09-06-1998 16:00, Mayor que la Máxima 12.6 10-06-1998 00:00 14.6 -- 12.6 2011-09-23 19:13:00
2 1998-06-20 00:00:00 Temperatura 10.1 del 19-06-1998 18:00, Mayor que la Máxima 10.0 20-06-1998 00:00 10.1 -- 10.0 2011-09-23 19:13:00
2 1998-07-01 00:00:00 Temperatura 10.6 del 30-06-1998 18:00, Mayor que la Máxima 10.4 01-07-1998 00:00 10.6 -- 10.4 2011-09-23 19:13:00
2 1998-08-28 00:00:00 Temperatura 11.5 del 27-08-1998 18:00, Mayor que la Máxima 10.8 28-08-1998 00:00 11.5 -- 10.8 2011-09-23 19:13:00
2 1998-09-08 00:00:00 Temperatura 10.4 del 07-09-1998 17:00, Mayor que la Máxima 10.2 08-09-1998 00:00 10.4 -- 10.2 2011-09-23 19:13:00
2 1998-09-16 00:00:00 Temperatura 11.6 del 15-09-1998 19:00, Mayor que la Máxima 10.8 16-09-1998 00:00 11.6 -- 10.8 2011-09-23 19:13:00
2 1998-11-03 00:00:00 Temperatura 16.0 del 02-11-1998 18:00, Mayor que la Máxima 15.9 03-11-1998 00:00 16.0 -- 15.9 2011-09-23 19:13:00
2 1998-11-20 00:00:00 Temperatura 18.2 del 19-11-1998 22:00, Mayor que la Máxima 16.6 20-11-1998 00:00 18.2 -- 16.6 2011-09-23 19:13:00
2 1998-12-14 00:00:00 Temperatura 16.2 del 13-12-1998 21:00, Mayor que la Máxima 15.8 14-12-1998 00:00 16.2 -- 15.8 2011-09-23 19:13:00
2 1998-12-17 00:00:00 Temperatura 19.2 del 16-12-1998 21:00, Mayor que la Máxima 18.8 17-12-1998 00:00 19.2 -- 18.8 2011-09-23 19:13:00
2 1999-01-22 00:00:00 Temperatura 19.8 del 21-01-1999 22:00, Mayor que la Máxima 19.6 22-01-1999 00:00 19.8 -- 19.6 2011-09-23 19:13:00
2 1999-02-10 00:00:00 Temperatura 17.0 del 09-02-1999 19:00, Mayor que la Máxima 16.8 10-02-1999 00:00 17.0 -- 16.8 2011-09-23 19:13:00
2 1999-03-21 00:00:00 Temperatura 14.4 del 20-03-1999 19:00, Mayor que la Máxima 14.2 21-03-1999 00:00 14.4 -- 14.2 2011-09-23 19:14:00
2 1999-04-02 00:00:00 Temperatura 17.6 del 01-04-1999 16:00, Mayor que la Máxima 17.0 02-04-1999 00:00 17.6 -- 17.0 2011-09-23 19:14:00
2 1999-04-11 00:00:00 Temperatura 14.4 del 10-04-1999 22:00, Mayor que la Máxima 13.4 11-04-1999 00:00 14.4 -- 13.4 2011-09-23 19:14:00
2 1999-05-03 00:00:00 Temperatura 17.9 del 02-05-1999 17:00, Mayor que la Máxima 10.8 03-05-1999 00:00 17.9 -- 10.8 2011-09-23 19:14:00
2 1999-05-08 00:00:00 Temperatura 13.4 del 07-05-1999 19:00, Mayor que la Máxima 13.2 08-05-1999 00:00 13.4 -- 13.2 2011-09-23 19:14:00
2 1999-06-11 00:00:00 Temperatura 7.8 del 10-06-1999 13:00, Mayor que la Máxima 7.5 11-06-1999 00:00 7.8 -- 7.5 2011-09-23 19:14:00
2 1999-07-04 00:00:00 Temperatura 9.2 del 03-07-1999 20:00, Mayor que la Máxima 6.2 04-07-1999 00:00 9.2 -- 6.2 2011-09-23 19:14:00
2 1999-07-21 00:00:00 Temperatura 10.4 del 20-07-1999 21:00, Mayor que la Máxima 10.0 21-07-1999 00:00 10.4 -- 10.0 2011-09-23 19:14:00
2 1999-07-28 00:00:00 Temperatura 9.0 del 27-07-1999 16:00, Mayor que la Máxima 8.2 28-07-1999 00:00 9.0 -- 8.2 2011-09-23 19:14:00
2 1999-08-25 00:00:00 Temperatura 13.9 del 24-08-1999 20:00, Mayor que la Máxima 13.2 25-08-1999 00:00 13.9 -- 13.2 2011-09-23 19:14:00
2 1999-09-02 00:00:00 Temperatura 12.0 del 01-09-1999 18:00, Mayor que la Máxima 11.8 02-09-1999 00:00 12.0 -- 11.8 2011-09-23 19:14:00
2 1999-10-02 00:00:00 Temperatura 13.2 del 01-10-1999 15:00, Mayor que la Máxima 12.8 02-10-1999 00:00 13.2 -- 12.8 2011-09-23 19:14:00
2 1999-10-29 00:00:00 Temperatura 14.6 del 28-10-1999 18:00, Mayor que la Máxima 14.0 29-10-1999 00:00 14.6 -- 14.0 2011-09-23 19:14:00
2 1999-11-24 00:00:00 Temperatura 13.4 del 23-11-1999 13:00, Mayor que la Máxima 13.0 24-11-1999 00:00 13.4 -- 13.0 2011-09-23 19:14:00
2 1999-12-13 00:00:00 Temperatura 18.9 del 12-12-1999 17:00, Mayor que la Máxima 18.0 13-12-1999 00:00 18.9 -- 18.0 2011-09-23 19:14:00
2 2000-02-01 00:00:00 Temperatura 17.7 del 31-01-2000 20:00, Mayor que la Máxima 17.6 01-02-2000 00:00 17.7 -- 17.6 2011-09-23 19:14:00
2 2000-02-16 00:00:00 Temperatura 28.9 del 15-02-2000 17:00, Mayor que la Máxima 28.2 16-02-2000 00:00 28.9 -- 28.2 2011-09-23 19:14:00
2 2000-03-29 00:00:00 Temperatura 13.6 del 28-03-2000 20:00, Mayor que la Máxima 13.4 29-03-2000 00:00 13.6 -- 13.4 2011-09-23 19:14:00
2 2000-04-20 00:00:00 Temperatura 20.0 del 19-04-2000 14:00, Mayor que la Máxima 11.8 20-04-2000 00:00 20.0 -- 11.8 2011-09-23 19:14:00
2 2000-06-22 00:00:00 Temperatura 7.9 del 21-06-2000 22:00, Mayor que la Máxima 7.8 22-06-2000 00:00 7.9 -- 7.8 2011-09-23 19:14:00
2 2000-09-11 00:00:00 Temperatura 7.0 del 10-09-2000 20:00, Mayor que la Máxima 6.8 11-09-2000 00:00 7.0 -- 6.8 2011-09-23 19:14:00
2 2000-10-26 00:00:00 Temperatura 14.0 del 25-10-2000 20:00, Mayor que la Máxima 13.8 26-10-2000 00:00 14.0 -- 13.8 2011-09-23 19:14:00
2 2001-10-13 00:00:00 Temperatura 14.2 del 12-10-2001 20:00, Mayor que la Máxima 14.0 13-10-2001 00:00 14.2 -- 14.0 2011-09-23 19:14:00
2 2001-12-23 00:00:00 Temperatura 21.2 del 22-12-2001 23:00, Mayor que la Máxima 15.6 23-12-2001 00:00 21.2 -- 15.6 2011-09-23 19:14:00
2 2002-02-21 00:00:00 Temperatura 19.4 del 20-02-2002 20:00, Mayor que la Máxima 19.0 21-02-2002 00:00 19.4 -- 19.0 2011-09-23 19:14:00
2 2002-05-11 00:00:00 Temperatura 15.0 del 10-05-2002 17:00, Mayor que la Máxima 14.8 11-05-2002 00:00 15.0 -- 14.8 2011-09-23 19:14:00
2 2002-05-18 00:00:00 Temperatura 9.9 del 17-05-2002 19:00, Mayor que la Máxima 9.6 18-05-2002 00:00 9.9 -- 9.6 2011-09-23 19:14:00
2 2002-06-27 00:00:00 Temperatura 10.0 del 26-06-2002 19:00, Mayor que la Máxima 9.8 27-06-2002 00:00 10.0 -- 9.8 2011-09-23 19:14:00
2 2002-07-21 00:00:00 Temperatura 10.0 del 20-07-2002 19:00, Mayor que la Máxima 9.8 21-07-2002 00:00 10.0 -- 9.8 2011-09-23 19:15:00
2 2002-11-25 00:00:00 Temperatura 15.9 del 24-11-2002 23:00, Mayor que la Máxima 15.4 25-11-2002 00:00 15.9 -- 15.4 2011-09-23 19:15:00
2 2002-12-23 00:00:00 Temperatura 14.2 del 22-12-2002 20:00, Mayor que la Máxima 14.0 23-12-2002 00:00 14.2 -- 14.0 2011-09-23 19:15:00
2 2002-12-29 00:00:00 Temperatura 17.6 del 28-12-2002 19:00, Mayor que la Máxima 17.4 29-12-2002 00:00 17.6 -- 17.4 2011-09-23 19:15:00
2 2003-03-15 00:00:00 Temperatura 14.8 del 14-03-2003 19:00, Mayor que la Máxima 14.4 15-03-2003 00:00 14.8 -- 14.4 2011-09-23 19:15:00
2 2003-03-20 00:00:00 Temperatura 17.2 del 19-03-2003 14:00, Mayor que la Máxima 13.4 20-03-2003 00:00 17.2 -- 13.4 2011-09-23 19:15:00
2 2003-06-20 00:00:00 Temperatura 11.4 del 19-06-2003 16:00, Mayor que la Máxima 11.2 20-06-2003 00:00 11.4 -- 11.2 2011-09-23 19:15:00
2 2003-06-21 00:00:00 Temperatura 11.2 del 20-06-2003 18:00, Mayor que la Máxima 11.1 21-06-2003 00:00 11.2 -- 11.1 2011-09-23 19:15:00
2 2003-10-08 00:00:00 Temperatura 14.2 del 07-10-2003 13:00, Mayor que la Máxima 13.2 08-10-2003 00:00 14.2 -- 13.2 2011-09-23 19:15:00
2 2003-10-30 00:00:00 Temperatura 15.2 del 29-10-2003 20:00, Mayor que la Máxima 14.6 30-10-2003 00:00 15.2 -- 14.6 2011-09-23 19:15:00
2 2003-12-02 00:00:00 Temperatura 15.8 del 01-12-2003 19:00, Mayor que la Máxima 15.6 02-12-2003 00:00 15.8 -- 15.6 2011-09-23 19:15:00
2 2004-02-10 00:00:00 Temperatura 17.4 del 09-02-2004 18:00, Mayor que la Máxima 17.2 10-02-2004 00:00 17.4 -- 17.2 2011-09-23 19:15:00
2 2004-05-05 00:00:00 Temperatura 17.8 del 04-05-2004 16:00, Mayor que la Máxima 15.2 05-05-2004 00:00 17.8 -- 15.2 2011-09-23 19:15:00
2 2004-07-11 00:00:00 Temperatura 7.6 del 10-07-2004 19:00, Mayor que la Máxima 7.4 11-07-2004 00:00 7.6 -- 7.4 2011-09-23 19:15:00
2 2004-07-30 00:00:00 Temperatura 12.0 del 29-07-2004 17:00, Mayor que la Máxima 11.8 30-07-2004 00:00 12.0 -- 11.8 2011-09-23 19:15:00
2 2004-12-03 00:00:00 Temperatura 13.0 del 02-12-2004 22:00, Mayor que la Máxima 9.6 03-12-2004 00:00 13.0 -- 9.6 2011-09-23 19:15:00
2 2005-01-21 00:00:00 Temperatura 16.8 del 20-01-2005 18:00, Mayor que la Máxima 15.8 21-01-2005 00:00 16.8 -- 15.8 2011-09-23 19:15:00
2 2005-03-24 00:00:00 Temperatura 16.8 del 23-03-2005 20:00, Mayor que la Máxima 16.6 24-03-2005 00:00 16.8 -- 16.6 2011-09-23 19:15:00
2 2005-03-27 00:00:00 Temperatura 14.7 del 26-03-2005 20:00, Mayor que la Máxima 14.4 27-03-2005 00:00 14.7 -- 14.4 2011-09-23 19:15:00
2 2005-04-17 00:00:00 Temperatura 15.2 del 16-04-2005 19:00, Mayor que la Máxima 15.0 17-04-2005 00:00 15.2 -- 15.0 2011-09-23 19:15:00
2 2005-05-16 00:00:00 Temperatura 10.8 del 15-05-2005 16:00, Mayor que la Máxima 10.4 16-05-2005 00:00 10.8 -- 10.4 2011-09-23 19:15:00
2 2005-10-21 00:00:00 Temperatura 14.0 del 20-10-2005 15:00, Mayor que la Máxima 13.6 21-10-2005 00:00 14.0 -- 13.6 2011-09-23 19:16:00
2 2005-10-29 00:00:00 Temperatura 14.0 del 28-10-2005 18:00, Mayor que la Máxima 11.4 29-10-2005 00:00 14.0 -- 11.4 2011-09-23 19:16:00
2 2005-11-14 00:00:00 Temperatura 14.0 del 13-11-2005 15:00, Mayor que la Máxima 13.4 14-11-2005 00:00 14.0 -- 13.4 2011-09-23 19:16:00
2 2006-03-05 00:00:00 Temperatura 19.0 del 04-03-2006 20:00, Mayor que la Máxima 17.4 05-03-2006 00:00 19.0 -- 17.4 2011-09-23 19:16:00
2 2006-09-22 00:00:00 Temperatura 9.8 del 21-09-2006 21:00, Mayor que la Máxima 8.4 22-09-2006 00:00 9.8 -- 8.4 2011-09-23 19:16:00
2 2007-07-20 00:00:00 Temperatura 9.0 del 19-07-2007 19:00, Mayor que la Máxima 8.8 20-07-2007 00:00 9.0 -- 8.8 2011-09-23 19:16:00
2 2007-08-10 00:00:00 Temperatura 9.0 del 09-08-2007 21:00, Mayor que la Máxima 8.4 10-08-2007 00:00 9.0 -- 8.4 2011-09-23 19:16:00
2 2007-08-21 00:00:00 Temperatura 6.2 del 20-08-2007 13:00, Mayor que la Máxima 5.8 21-08-2007 00:00 6.2 -- 5.8 2011-09-23 19:16:00
2 2007-09-28 00:00:00 Temperatura 10.8 del 27-09-2007 16:00, Mayor que la Máxima 10.2 28-09-2007 00:00 10.8 -- 10.2 2011-09-23 19:16:00
2 2007-10-02 00:00:00 Temperatura 12.2 del 01-10-2007 15:00, Mayor que la Máxima 12.0 02-10-2007 00:00 12.2 -- 12.0 2011-09-23 19:16:00
2 2007-11-23 00:00:00 Temperatura 12.6 del 22-11-2007 20:00, Mayor que la Máxima 12.2 23-11-2007 00:00 12.6 -- 12.2 2011-09-23 19:16:00
2 2008-01-31 00:00:00 Temperatura 22.0 del 30-01-2008 17:00, Mayor que la Máxima 21.4 31-01-2008 00:00 22.0 -- 21.4 2011-09-23 19:16:00
Errores del Nivel 600
Informe generado el 23-02-2024 10:48
Requerimiento: RE6001